Wetterdaten: Samstag, 26.10.2019
Datum Zeit Temp. Aussen Temp. o. S. Temp +5cm Feuchte Auss Luftdruck Regen Sonnenschein Regendauer Solar Windben Empfang
26.10.2019 00:00 13,9 C 12,8 C 12,2 C 87 % 1017,9 hPa 0,0 l/m 0 min 0 min 0 W/m 16,1 km/h (3 Bft) 97,87 %
26.10.2019 00:02 13,9 C 12,8 C 12,2 C 87 % 1018,0 hPa 0,0 l/m 0 min 0 min 0 W/m 12,9 km/h (3 Bft) 94,59 %
26.10.2019 00:04 13,9 C 12,8 C 12,2 C 87 % 1018,0 hPa 0,0 l/m 0 min 0 min 0 W/m 6,4 km/h (2 Bft) 98,00 %
26.10.2019 00:08 13,9 C 12,8 C 12,2 C 87 % 1018,0 hPa 0,0 l/m 0 min 0 min 0 W/m 6,4 km/h (2 Bft) 97,87 %
26.10.2019 00:10 13,8 C 12,8 C 12,2 C 88 % 1018,0 hPa 0,0 l/m 0 min 0 min 0 W/m 12,9 km/h (3 Bft) 97,92 %
26.10.2019 00:12 13,8 C 12,8 C 12,2 C 88 % 1018,0 hPa 0,0 l/m 0 min 0 min 0 W/m 6,4 km/h (2 Bft) 97,87 %
26.10.2019 00:14 13,8 C 12,8 C 12,2 C 88 % 1017,9 hPa 0,0 l/m 0 min 0 min 0 W/m 12,9 km/h (3 Bft) 97,92 %
26.10.2019 00:16 13,8 C 12,8 C 12,2 C 88 % 1017,9 hPa 0,0 l/m 0 min 0 min 0 W/m 12,9 km/h (3 Bft) 95,65 %
26.10.2019 00:18 13,8 C 12,8 C 12,2 C 88 % 1018,0 hPa 0,0 l/m 0 min 0 min 0 W/m 12,9 km/h (3 Bft) 97,92 %
26.10.2019 00:20 13,8 C 12,8 C 12,2 C 88 % 1018,0 hPa 0,0 l/m 0 min 0 min 0 W/m 6,4 km/h (2 Bft) 97,92 %
26.10.2019 00:22 13,8 C 12,8 C 12,2 C 88 % 1018,0 hPa 0,0 l/m 0 min 0 min 0 W/m 6,4 km/h (2 Bft) 95,74 %
26.10.2019 00:24 13,7 C 12,8 C 12,2 C 88 % 1018,0 hPa 0,0 l/m 0 min 0 min 0 W/m 19,3 km/h (3 Bft) 93,48 %
26.10.2019 00:26 13,7 C 12,8 C 12,2 C 88 % 1018,0 hPa 0,0 l/m 0 min 0 min 0 W/m 12,9 km/h (3 Bft) 93,62 %
26.10.2019 00:28 13,7 C 12,8 C 12,2 C 88 % 1018,0 hPa 0,0 l/m 0 min 0 min 0 W/m 6,4 km/h (2 Bft) 95,74 %
26.10.2019 00:30 13,7 C 12,8 C 12,2 C 88 % 1018,0 hPa 0,0 l/m 0 min 0 min 0 W/m 9,7 km/h (2 Bft) 95,74 %
26.10.2019 00:32 13,7 C 12,8 C 12,2 C 88 % 1018,0 hPa 0,0 l/m 0 min 0 min 0 W/m 6,4 km/h (2 Bft) 95,74 %
26.10.2019 00:34 13,7 C 12,8 C 12,2 C 88 % 1018,1 hPa 0,0 l/m 0 min 0 min 0 W/m 6,4 km/h (2 Bft) 95,74 %
26.10.2019 00:36 13,7 C 12,8 C 12,2 C 88 % 1018,1 hPa 0,0 l/m 0 min 0 min 0 W/m 9,7 km/h (2 Bft) 95,74 %
26.10.2019 00:38 13,7 C 12,8 C 12,2 C 88 % 1018,1 hPa 0,0 l/m 0 min 0 min 0 W/m 9,7 km/h (2 Bft) 95,65 %
26.10.2019 00:40 13,6 C 12,8 C 12,2 C 88 % 1018,0 hPa 0,0 l/m 0 min 0 min 0 W/m 9,7 km/h (2 Bft) 97,87 %
26.10.2019 00:42 13,6 C 12,8 C 12,2 C 89 % 1018,0 hPa 0,0 l/m 0 min 0 min 0 W/m 16,1 km/h (3 Bft) 97,87 %
26.10.2019 00:44 13,6 C 12,8 C 12,2 C 89 % 1018,0 hPa 0,0 l/m 0 min 0 min 0 W/m 6,4 km/h (2 Bft) 97,56 %
26.10.2019 00:46 13,6 C 12,8 C 12,2 C 89 % 1018,0 hPa 0,0 l/m 0 min 0 min 0 W/m 16,1 km/h (3 Bft) 97,87 %
26.10.2019 00:48 13,6 C 12,8 C 12,2 C 89 % 1018,0 hPa 0,0 l/m 0 min 0 min 0 W/m 12,9 km/h (3 Bft) 97,73 %
26.10.2019 00:50 13,6 C 12,8 C 12,2 C 89 % 1018,0 hPa 0,0 l/m 0 min 0 min 0 W/m 6,4 km/h (2 Bft) 95,74 %
26.10.2019 00:52 13,6 C 12,8 C 12,2 C 89 % 1018,1 hPa 0,0 l/m 0 min 0 min 0 W/m 12,9 km/h (3 Bft) 97,83 %
26.10.2019 00:54 13,6 C 12,8 C 12,2 C 89 % 1018,2 hPa 0,0 l/m 0 min 0 min 0 W/m 19,3 km/h (3 Bft) 96,61 %
26.10.2019 00:56 13,6 C 12,8 C 12,2 C 89 % 1018,2 hPa 0,0 l/m 0 min 0 min 0 W/m 19,3 km/h (3 Bft) 97,14 %
26.10.2019 00:58 13,6 C 12,8 C 12,2 C 89 % 1018,1 hPa 0,0 l/m 0 min 0 min 0 W/m 16,1 km/h (3 Bft) 95,35 %
26.10.2019 01:00 13,6 C 12,8 C 12,8 C 89 % 1018,0 hPa 0,0 l/m 0 min 0 min 0 W/m 16,1 km/h (3 Bft) 97,92 %
26.10.2019 01:02 13,6 C 12,8 C 12,8 C 89 % 1018,0 hPa 0,0 l/m 0 min 0 min 0 W/m 16,1 km/h (3 Bft) 98,00 %
26.10.2019 01:04 13,7 C 12,8 C 12,8 C 89 % 1018,1 hPa 0,0 l/m 0 min 0 min 0 W/m 16,1 km/h (3 Bft) 98,11 %
26.10.2019 01:06 13,7 C 12,8 C 12,2 C 89 % 1018,0 hPa 0,0 l/m 0 min 0 min 0 W/m 6,4 km/h (2 Bft) 96,00 %
26.10.2019 01:08 13,7 C 12,8 C 12,2 C 89 % 1018,0 hPa 0,0 l/m 0 min 0 min 0 W/m 12,9 km/h (3 Bft) 97,37 %
26.10.2019 01:10 13,7 C 12,8 C 12,2 C 89 % 1018,0 hPa 0,0 l/m 0 min 0 min 0 W/m 16,1 km/h (3 Bft) 97,92 %
26.10.2019 01:12 13,7 C 12,8 C 12,2 C 89 % 1018,0 hPa 0,0 l/m 0 min 0 min 0 W/m 12,9 km/h (3 Bft) 97,87 %
26.10.2019 01:14 13,7 C 12,8 C 12,2 C 89 % 1018,1 hPa 0,0 l/m 0 min 0 min 0 W/m 6,4 km/h (2 Bft) 97,92 %
26.10.2019 01:16 13,7 C 12,8 C 12,2 C 89 % 1018,0 hPa 0,0 l/m 0 min 0 min 0 W/m 16,1 km/h (3 Bft) 95,65 %
26.10.2019 01:18 13,7 C 12,8 C 12,2 C 89 % 1018,0 hPa 0,0 l/m 0 min 0 min 0 W/m 16,1 km/h (3 Bft) 98,15 %
26.10.2019 01:20 13,7 C 12,8 C 12,2 C 89 % 1018,1 hPa 0,0 l/m 0 min 0 min 0 W/m 16,1 km/h (3 Bft) 97,37 %
26.10.2019 01:22 13,7 C 12,8 C 12,2 C 89 % 1018,0 hPa 0,0 l/m 0 min 0 min 0 W/m 12,9 km/h (3 Bft) 97,96 %
26.10.2019 01:24 13,7 C 12,8 C 12,2 C 89 % 1018,1 hPa 0,0 l/m 0 min 0 min 0 W/m 6,4 km/h (2 Bft) 100,00 %
26.10.2019 01:26 13,7 C 12,8 C 12,2 C 89 % 1018,1 hPa 0,0 l/m 0 min 0 min 0 W/m 6,4 km/h (2 Bft) 100,00 %
26.10.2019 01:28 13,7 C 12,8 C 12,2 C 89 % 1018,1 hPa 0,0 l/m 0 min 0 min 0 W/m 12,9 km/h (3 Bft) 100,00 %
26.10.2019 01:30 13,7 C 12,8 C 12,2 C 89 % 1018,2 hPa 0,0 l/m 0 min 0 min 0 W/m 3,2 km/h (1 Bft) 100,00 %
26.10.2019 01:32 13,7 C 12,8 C 12,2 C 89 % 1018,1 hPa 0,0 l/m 0 min 0 min 0 W/m 6,4 km/h (2 Bft) 100,00 %
26.10.2019 01:34 13,7 C 12,8 C 12,2 C 89 % 1018,1 hPa 0,0 l/m 0 min 0 min 0 W/m 12,9 km/h (3 Bft) 100,00 %
26.10.2019 01:36 13,7 C 12,8 C 12,2 C 89 % 1018,0 hPa 0,0 l/m 0 min 0 min 0 W/m 12,9 km/h (3 Bft) 100,00 %
26.10.2019 01:38 13,7 C 12,8 C 12,8 C 89 % 1018,0 hPa 0,0 l/m 0 min 0 min 0 W/m 6,4 km/h (2 Bft) 100,00 %
26.10.2019 01:40 13,7 C 12,8 C 12,8 C 89 % 1017,9 hPa 0,0 l/m 0 min 0 min 0 W/m 6,4 km/h (2 Bft) 100,00 %
26.10.2019 01:42 13,7 C 12,8 C 12,8 C 89 % 1017,9 hPa 0,0 l/m 0 min 0 min 0 W/m 16,1 km/h (3 Bft) 100,00 %
26.10.2019 01:44 13,7 C 12,8 C 12,8 C 89 % 1017,8 hPa 0,0 l/m 0 min 0 min 0 W/m 6,4 km/h (2 Bft) 97,87 %
26.10.2019 01:46 13,7 C 12,8 C 12,2 C 89 % 1017,8 hPa 0,0 l/m 0 min 0 min 0 W/m 12,9 km/h (3 Bft) 97,83 %
26.10.2019 01:48 13,7 C 12,8 C 12,2 C 89 % 1017,8 hPa 0,0 l/m 0 min 0 min 0 W/m 6,4 km/h (2 Bft) 95,74 %
26.10.2019 01:50 13,7 C 12,8 C 12,2 C 89 % 1017,8 hPa 0,0 l/m 0 min 0 min 0 W/m 6,4 km/h (2 Bft) 97,87 %
26.10.2019 01:52 13,8 C 12,8 C 12,2 C 89 % 1017,8 hPa 0,0 l/m 0 min 0 min 0 W/m 6,4 km/h (2 Bft) 97,87 %
26.10.2019 01:54 13,7 C 12,8 C 12,2 C 89 % 1017,8 hPa 0,0 l/m 0 min 0 min 0 W/m 12,9 km/h (3 Bft) 97,87 %
26.10.2019 01:56 13,7 C 12,8 C 12,2 C 89 % 1017,8 hPa 0,0 l/m 0 min 0 min 0 W/m 6,4 km/h (2 Bft) 97,87 %
26.10.2019 01:58 13,7 C 12,8 C 12,2 C 89 % 1017,8 hPa 0,0 l/m 0 min 0 min 0 W/m 6,4 km/h (2 Bft) 95,65 %
26.10.2019 02:00 13,7 C 12,8 C 12,2 C 89 % 1017,7 hPa 0,0 l/m 0 min 0 min 0 W/m 12,9 km/h (3 Bft) 95,74 %
26.10.2019 02:02 13,7 C 12,8 C 12,2 C 89 % 1017,7 hPa 0,0 l/m 0 min 0 min 0 W/m 12,9 km/h (3 Bft) 95,74 %
26.10.2019 02:04 13,7 C 12,8 C 12,2 C 90 % 1017,7 hPa 0,0 l/m 0 min 0 min 0 W/m 12,9 km/h (3 Bft) 95,74 %
26.10.2019 02:06 13,7 C 12,8 C 12,2 C 90 % 1017,6 hPa 0,0 l/m 0 min 0 min 0 W/m 6,4 km/h (2 Bft) 97,87 %
26.10.2019 02:08 13,7 C 12,8 C 12,2 C 89 % 1017,6 hPa 0,0 l/m 0 min 0 min 0 W/m 6,4 km/h (2 Bft) 97,87 %
26.10.2019 02:10 13,7 C 12,8 C 12,2 C 90 % 1017,6 hPa 0,0 l/m 0 min 0 min 0 W/m 16,1 km/h (3 Bft) 97,83 %
26.10.2019 02:12 13,7 C 12,8 C 12,2 C 90 % 1017,6 hPa 0,0 l/m 0 min 0 min 0 W/m 6,4 km/h (2 Bft) 97,87 %
26.10.2019 02:14 13,7 C 12,8 C 12,2 C 90 % 1017,6 hPa 0,0 l/m 0 min 0 min 0 W/m 16,1 km/h (3 Bft) 97,87 %
26.10.2019 02:16 13,7 C 12,8 C 12,2 C 90 % 1017,5 hPa 0,0 l/m 0 min 0 min 0 W/m 16,1 km/h (3 Bft) 97,87 %
26.10.2019 02:18 13,7 C 12,8 C 12,2 C 90 % 1017,5 hPa 0,0 l/m 0 min 0 min 0 W/m 12,9 km/h (3 Bft) 97,87 %
26.10.2019 02:20 13,7 C 12,8 C 12,2 C 90 % 1017,5 hPa 0,0 l/m 0 min 0 min 0 W/m 12,9 km/h (3 Bft) 95,74 %
26.10.2019 02:22 13,7 C 12,8 C 12,2 C 90 % 1017,5 hPa 0,0 l/m 0 min 0 min 0 W/m 19,3 km/h (3 Bft) 93,48 %
26.10.2019 02:24 13,7 C 12,8 C 12,8 C 90 % 1017,5 hPa 0,0 l/m 0 min 0 min 0 W/m 12,9 km/h (3 Bft) 95,74 %
26.10.2019 02:26 13,7 C 12,8 C 12,8 C 90 % 1017,5 hPa 0,0 l/m 0 min 0 min 0 W/m 12,9 km/h (3 Bft) 97,87 %
26.10.2019 02:28 13,7 C 12,8 C 12,2 C 90 % 1017,4 hPa 0,0 l/m 0 min 0 min 0 W/m 12,9 km/h (3 Bft) 95,74 %
26.10.2019 02:30 13,7 C 12,8 C 12,2 C 90 % 1017,4 hPa 0,0 l/m 0 min 0 min 0 W/m 12,9 km/h (3 Bft) 97,87 %
26.10.2019 02:32 13,7 C 12,8 C 12,8 C 90 % 1017,5 hPa 0,0 l/m 0 min 0 min 0 W/m 12,9 km/h (3 Bft) 97,83 %
26.10.2019 02:34 13,7 C 13,3 C 12,8 C 90 % 1017,4 hPa 0,0 l/m 0 min 0 min 0 W/m 19,3 km/h (3 Bft) 100,00 %
26.10.2019 02:36 13,8 C 13,3 C 12,8 C 90 % 1017,4 hPa 0,0 l/m 0 min 0 min 0 W/m 16,1 km/h (3 Bft) 100,00 %
26.10.2019 02:38 13,8 C 13,3 C 12,8 C 90 % 1017,4 hPa 0,0 l/m 0 min 0 min 0 W/m 3,2 km/h (1 Bft) 97,87 %
26.10.2019 02:40 13,8 C 13,3 C 12,8 C 90 % 1017,5 hPa 0,0 l/m 0 min 0 min 0 W/m 12,9 km/h (3 Bft) 97,87 %
26.10.2019 02:42 13,8 C 13,3 C 12,8 C 90 % 1017,4 hPa 0,0 l/m 0 min 0 min 0 W/m 6,4 km/h (2 Bft) 97,87 %
26.10.2019 02:44 13,8 C 12,8 C 12,8 C 90 % 1017,4 hPa 0,0 l/m 0 min 0 min 0 W/m 3,2 km/h (1 Bft) 97,83 %
26.10.2019 02:46 13,8 C 12,8 C 12,8 C 90 % 1017,4 hPa 0,0 l/m 0 min 0 min 0 W/m 12,9 km/h (3 Bft) 97,87 %
26.10.2019 02:48 13,8 C 12,8 C 12,8 C 90 % 1017,3 hPa 0,0 l/m 0 min 0 min 0 W/m 16,1 km/h (3 Bft) 97,87 %
26.10.2019 02:50 13,8 C 12,8 C 12,8 C 90 % 1017,2 hPa 0,0 l/m 0 min 0 min 0 W/m 9,7 km/h (2 Bft) 97,87 %
26.10.2019 02:52 13,8 C 12,8 C 12,8 C 90 % 1017,2 hPa 0,0 l/m 0 min 0 min 0 W/m 6,4 km/h (2 Bft) 97,87 %
26.10.2019 02:54 13,8 C 12,8 C 12,8 C 90 % 1017,2 hPa 0,0 l/m 0 min 0 min 0 W/m 12,9 km/h (3 Bft) 97,87 %
26.10.2019 02:56 13,8 C 12,8 C 12,8 C 90 % 1017,2 hPa 0,0 l/m 0 min 0 min 0 W/m 12,9 km/h (3 Bft) 97,83 %
26.10.2019 02:58 13,8 C 13,3 C 12,8 C 90 % 1017,1 hPa 0,0 l/m 0 min 0 min 0 W/m 6,4 km/h (2 Bft) 97,87 %
26.10.2019 03:00 13,8 C 13,3 C 12,8 C 90 % 1017,2 hPa 0,0 l/m 0 min 0 min 0 W/m 12,9 km/h (3 Bft) 97,87 %
26.10.2019 03:02 13,8 C 13,3 C 12,8 C 90 % 1017,1 hPa 0,0 l/m 0 min 0 min 0 W/m 12,9 km/h (3 Bft) 97,87 %
26.10.2019 03:04 13,9 C 13,3 C 12,8 C 90 % 1017,0 hPa 0,0 l/m 0 min 0 min 0 W/m 12,9 km/h (3 Bft) 95,74 %
26.10.2019 03:06 13,9 C 12,8 C 12,8 C 90 % 1017,0 hPa 0,0 l/m 0 min 0 min 0 W/m 16,1 km/h (3 Bft) 97,87 %
26.10.2019 03:08 13,9 C 12,8 C 12,8 C 90 % 1017,0 hPa 0,0 l/m 0 min 0 min 0 W/m 6,4 km/h (2 Bft) 97,83 %
26.10.2019 03:10 13,9 C 12,8 C 12,8 C 90 % 1017,0 hPa 0,0 l/m 0 min 0 min 0 W/m 12,9 km/h (3 Bft) 95,74 %
26.10.2019 03:12 13,9 C 12,8 C 12,8 C 90 % 1017,0 hPa 0,0 l/m 0 min 0 min 0 W/m 6,4 km/h (2 Bft) 97,87 %
26.10.2019 03:14 13,9 C 12,8 C 12,8 C 90 % 1017,0 hPa 0,0 l/m 0 min 0 min 0 W/m 12,9 km/h (3 Bft) 95,74 %
26.10.2019 03:16 13,9 C 13,3 C 12,8 C 90 % 1017,0 hPa 0,0 l/m 0 min 0 min 0 W/m 19,3 km/h (3 Bft) 97,87 %
26.10.2019 03:18 13,9 C 13,3 C 12,8 C 90 % 1017,0 hPa 0,0 l/m 0 min 0 min 0 W/m 12,9 km/h (3 Bft) 97,87 %
26.10.2019 03:20 13,9 C 13,3 C 12,8 C 90 % 1017,0 hPa 0,0 l/m 0 min 0 min 0 W/m 6,4 km/h (2 Bft) 97,83 %
26.10.2019 03:22 13,9 C 13,3 C 12,8 C 90 % 1017,0 hPa 0,0 l/m 0 min 0 min 0 W/m 16,1 km/h (3 Bft) 97,87 %
26.10.2019 03:24 13,9 C 13,3 C 12,8 C 90 % 1017,0 hPa 0,0 l/m 0 min 0 min 0 W/m 6,4 km/h (2 Bft) 97,87 %
26.10.2019 03:26 13,9 C 13,3 C 12,8 C 90 % 1017,0 hPa 0,0 l/m 0 min 0 min 0 W/m 6,4 km/h (2 Bft) 97,87 %
26.10.2019 03:28 13,9 C 13,3 C 12,8 C 90 % 1017,1 hPa 0,0 l/m 0 min 0 min 0 W/m 12,9 km/h (3 Bft) 100,00 %
26.10.2019 03:30 13,9 C 13,3 C 12,8 C 90 % 1017,1 hPa 0,0 l/m 0 min 0 min 0 W/m 6,4 km/h (2 Bft) 100,00 %
26.10.2019 03:32 14,0 C 13,3 C 12,8 C 90 % 1017,0 hPa 0,0 l/m 0 min 0 min 0 W/m 25,7 km/h (4 Bft) 97,87 %
26.10.2019 03:34 14,0 C 13,3 C 12,8 C 90 % 1017,0 hPa 0,0 l/m 0 min 0 min 0 W/m 22,5 km/h (4 Bft) 100,00 %
26.10.2019 03:36 14,0 C 13,3 C 12,8 C 90 % 1017,0 hPa 0,0 l/m 0 min 0 min 0 W/m 12,9 km/h (3 Bft) 100,00 %
26.10.2019 03:38 14,1 C 13,3 C 12,8 C 90 % 1017,0 hPa 0,0 l/m 0 min 0 min 0 W/m 12,9 km/h (3 Bft) 100,00 %
26.10.2019 03:40 14,1 C 13,3 C 12,8 C 90 % 1017,0 hPa 0,0 l/m 0 min 0 min 0 W/m 12,9 km/h (3 Bft) 100,00 %
26.10.2019 03:42 14,1 C 13,3 C 12,8 C 90 % 1017,0 hPa 0,0 l/m 0 min 0 min 0 W/m 16,1 km/h (3 Bft) 100,00 %
26.10.2019 03:44 14,1 C 13,3 C 12,8 C 89 % 1017,0 hPa 0,0 l/m 0 min 0 min 0 W/m 16,1 km/h (3 Bft) 97,87 %
26.10.2019 03:46 14,1 C 13,3 C 12,8 C 90 % 1016,9 hPa 0,0 l/m 0 min 0 min 0 W/m 16,1 km/h (3 Bft) 97,87 %
26.10.2019 03:48 14,1 C 13,3 C 12,8 C 90 % 1016,8 hPa 0,0 l/m 0 min 0 min 0 W/m 16,1 km/h (3 Bft) 100,00 %
26.10.2019 03:50 14,2 C 13,3 C 12,8 C 89 % 1016,9 hPa 0,0 l/m 0 min 0 min 0 W/m 6,4 km/h (2 Bft) 100,00 %
26.10.2019 03:52 14,2 C 13,3 C 12,8 C 89 % 1016,8 hPa 0,0 l/m 0 min 0 min 0 W/m 16,1 km/h (3 Bft) 100,00 %
26.10.2019 03:54 14,2 C 13,3 C 12,8 C 89 % 1016,8 hPa 0,0 l/m 0 min 0 min 0 W/m 12,9 km/h (3 Bft) 97,83 %
26.10.2019 03:56 14,2 C 13,3 C 12,8 C 89 % 1016,8 hPa 0,0 l/m 0 min 0 min 0 W/m 12,9 km/h (3 Bft) 100,00 %
26.10.2019 03:58 14,2 C 13,3 C 12,8 C 89 % 1016,7 hPa 0,0 l/m 0 min 0 min 0 W/m 12,9 km/h (3 Bft) 100,00 %
26.10.2019 04:00 14,2 C 13,3 C 12,8 C 89 % 1016,7 hPa 0,0 l/m 0 min 0 min 0 W/m 12,9 km/h (3 Bft) 97,87 %
26.10.2019 04:05 14,2 C 12,8 C 12,2 C 89 % 1016,7 hPa 0,0 l/m 0 min 0 min 0 W/m 6,4 km/h (2 Bft) 96,49 %
26.10.2019 04:06 14,2 C 12,8 C 12,2 C 89 % 1016,7 hPa 0,0 l/m 0 min 0 min 0 W/m 3,2 km/h (1 Bft) 100,00 %
26.10.2019 04:08 14,2 C 12,8 C 12,2 C 89 % 1016,7 hPa 0,0 l/m 0 min 0 min 0 W/m 3,2 km/h (1 Bft) 97,87 %
26.10.2019 04:10 14,2 C 12,8 C 12,2 C 89 % 1016,7 hPa 0,0 l/m 0 min 0 min 0 W/m 6,4 km/h (2 Bft) 97,87 %
26.10.2019 04:12 14,1 C 12,8 C 12,2 C 89 % 1016,7 hPa 0,0 l/m 0 min 0 min 0 W/m 12,9 km/h (3 Bft) 93,62 %
26.10.2019 04:14 14,1 C 12,8 C 12,2 C 89 % 1016,7 hPa 0,0 l/m 0 min 0 min 0 W/m 6,4 km/h (2 Bft) 97,87 %
26.10.2019 04:16 14,1 C 12,8 C 12,2 C 89 % 1016,7 hPa 0,0 l/m 0 min 0 min 0 W/m 6,4 km/h (2 Bft) 93,62 %
26.10.2019 04:18 14,1 C 12,8 C 12,2 C 89 % 1016,6 hPa 0,0 l/m 0 min 0 min 0 W/m 12,9 km/h (3 Bft) 97,83 %
26.10.2019 04:20 14,1 C 12,8 C 12,2 C 89 % 1016,7 hPa 0,0 l/m 0 min 0 min 0 W/m 6,4 km/h (2 Bft) 97,87 %
26.10.2019 04:22 14,0 C 12,8 C 12,2 C 89 % 1016,7 hPa 0,0 l/m 0 min 0 min 0 W/m 3,2 km/h (1 Bft) 93,62 %
26.10.2019 04:24 14,0 C 12,8 C 12,8 C 89 % 1016,6 hPa 0,0 l/m 0 min 0 min 0 W/m 16,1 km/h (3 Bft) 97,87 %
26.10.2019 04:26 14,0 C 13,3 C 12,8 C 89 % 1016,6 hPa 0,0 l/m 0 min 0 min 0 W/m 12,9 km/h (3 Bft) 95,74 %
26.10.2019 04:28 14,0 C 13,3 C 12,8 C 89 % 1016,7 hPa 0,0 l/m 0 min 0 min 0 W/m 25,7 km/h (4 Bft) 95,74 %
26.10.2019 04:30 14,1 C 13,3 C 12,8 C 90 % 1016,5 hPa 0,0 l/m 0 min 0 min 0 W/m 12,9 km/h (3 Bft) 95,65 %
26.10.2019 04:32 14,1 C 13,3 C 12,8 C 90 % 1016,5 hPa 0,0 l/m 0 min 0 min 0 W/m 12,9 km/h (3 Bft) 95,74 %
26.10.2019 04:34 14,1 C 13,3 C 12,8 C 90 % 1016,5 hPa 0,0 l/m 0 min 0 min 0 W/m 16,1 km/h (3 Bft) 93,62 %
26.10.2019 04:36 14,1 C 13,3 C 12,8 C 90 % 1016,6 hPa 0,0 l/m 0 min 0 min 0 W/m 16,1 km/h (3 Bft) 95,74 %
26.10.2019 04:38 14,1 C 13,3 C 12,8 C 90 % 1016,6 hPa 0,0 l/m 0 min 0 min 0 W/m 16,1 km/h (3 Bft) 95,74 %
26.10.2019 04:40 14,1 C 13,3 C 12,8 C 90 % 1016,5 hPa 0,0 l/m 0 min 0 min 0 W/m 16,1 km/h (3 Bft) 93,62 %
26.10.2019 04:42 14,1 C 13,3 C 12,8 C 90 % 1016,6 hPa 0,0 l/m 0 min 0 min 0 W/m 16,1 km/h (3 Bft) 95,65 %
26.10.2019 04:44 14,2 C 13,9 C 12,8 C 90 % 1016,6 hPa 0,0 l/m 0 min 0 min 0 W/m 19,3 km/h (3 Bft) 95,74 %
26.10.2019 04:46 14,2 C 13,3 C 12,8 C 90 % 1016,5 hPa 0,0 l/m 0 min 0 min 0 W/m 6,4 km/h (2 Bft) 95,74 %
26.10.2019 04:48 14,3 C 13,9 C 12,8 C 90 % 1016,5 hPa 0,0 l/m 0 min 0 min 0 W/m 19,3 km/h (3 Bft) 93,62 %
26.10.2019 04:50 14,3 C 13,9 C 13,3 C 90 % 1016,6 hPa 0,0 l/m 0 min 0 min 0 W/m 16,1 km/h (3 Bft) 95,74 %
26.10.2019 04:52 14,3 C 13,9 C 13,3 C 90 % 1016,6 hPa 0,0 l/m 0 min 0 min 0 W/m 16,1 km/h (3 Bft) 95,65 %
26.10.2019 04:54 14,3 C 13,9 C 13,3 C 90 % 1016,6 hPa 0,0 l/m 0 min 0 min 0 W/m 19,3 km/h (3 Bft) 95,74 %
26.10.2019 04:56 14,3 C 13,9 C 13,3 C 90 % 1016,6 hPa 0,0 l/m 0 min 0 min 0 W/m 12,9 km/h (3 Bft) 95,74 %
26.10.2019 04:58 14,3 C 13,9 C 13,3 C 89 % 1016,7 hPa 0,0 l/m 0 min 0 min 0 W/m 6,4 km/h (2 Bft) 95,74 %
26.10.2019 05:00 14,3 C 13,9 C 13,3 C 89 % 1016,6 hPa 0,0 l/m 0 min 0 min 0 W/m 6,4 km/h (2 Bft) 95,74 %
26.10.2019 05:02 14,3 C 13,9 C 12,8 C 89 % 1016,6 hPa 0,0 l/m 0 min 0 min 0 W/m 9,7 km/h (2 Bft) 97,87 %
26.10.2019 05:04 14,3 C 13,9 C 12,8 C 89 % 1016,6 hPa 0,0 l/m 0 min 0 min 0 W/m 16,1 km/h (3 Bft) 95,65 %
26.10.2019 05:06 14,3 C 13,9 C 12,8 C 89 % 1016,6 hPa 0,0 l/m 0 min 0 min 0 W/m 16,1 km/h (3 Bft) 97,87 %
26.10.2019 05:08 14,3 C 13,3 C 12,8 C 89 % 1016,7 hPa 0,0 l/m 0 min 0 min 0 W/m 6,4 km/h (2 Bft) 97,87 %
26.10.2019 05:10 14,3 C 13,9 C 12,8 C 89 % 1016,6 hPa 0,0 l/m 0 min 0 min 0 W/m 29,0 km/h (5 Bft) 97,87 %
26.10.2019 05:12 14,3 C 13,9 C 13,3 C 89 % 1016,6 hPa 0,0 l/m 0 min 0 min 0 W/m 16,1 km/h (3 Bft) 95,74 %
26.10.2019 05:14 14,3 C 13,9 C 13,3 C 89 % 1016,7 hPa 0,0 l/m 0 min 0 min 0 W/m 22,5 km/h (4 Bft) 100,00 %
26.10.2019 05:16 14,3 C 13,9 C 13,3 C 89 % 1016,7 hPa 0,0 l/m 0 min 0 min 0 W/m 16,1 km/h (3 Bft) 95,65 %
26.10.2019 05:18 14,3 C 13,9 C 13,3 C 89 % 1016,7 hPa 0,0 l/m 0 min 0 min 0 W/m 12,9 km/h (3 Bft) 97,87 %
26.10.2019 05:20 14,4 C 13,9 C 13,3 C 89 % 1016,7 hPa 0,0 l/m 0 min 0 min 0 W/m 12,9 km/h (3 Bft) 100,00 %
26.10.2019 05:22 14,4 C 13,9 C 12,8 C 89 % 1016,7 hPa 0,0 l/m 0 min 0 min 0 W/m 6,4 km/h (2 Bft) 100,00 %
26.10.2019 05:24 14,4 C 13,3 C 12,8 C 89 % 1016,7 hPa 0,0 l/m 0 min 0 min 0 W/m 6,4 km/h (2 Bft) 93,62 %
26.10.2019 05:26 14,4 C 13,3 C 12,8 C 89 % 1016,7 hPa 0,0 l/m 0 min 0 min 0 W/m 6,4 km/h (2 Bft) 97,87 %
26.10.2019 05:28 14,4 C 13,3 C 12,8 C 89 % 1016,7 hPa 0,0 l/m 0 min 0 min 0 W/m 12,9 km/h (3 Bft) 100,00 %
26.10.2019 05:30 14,4 C 13,9 C 12,8 C 89 % 1016,7 hPa 0,0 l/m 0 min 0 min 0 W/m 22,5 km/h (4 Bft) 100,00 %
26.10.2019 05:32 14,4 C 13,9 C 13,3 C 89 % 1016,7 hPa 0,0 l/m 0 min 0 min 0 W/m 19,3 km/h (3 Bft) 97,87 %
26.10.2019 05:34 14,4 C 13,9 C 13,3 C 89 % 1016,7 hPa 0,0 l/m 0 min 0 min 0 W/m 16,1 km/h (3 Bft) 97,87 %
26.10.2019 05:36 14,4 C 13,9 C 12,8 C 89 % 1016,7 hPa 0,0 l/m 0 min 0 min 0 W/m 16,1 km/h (3 Bft) 97,87 %
26.10.2019 05:38 14,4 C 13,9 C 12,8 C 89 % 1016,7 hPa 0,0 l/m 0 min 0 min 0 W/m 16,1 km/h (3 Bft) 97,87 %
26.10.2019 05:40 14,4 C 13,9 C 13,3 C 89 % 1016,6 hPa 0,0 l/m 0 min 0 min 0 W/m 22,5 km/h (4 Bft) 95,65 %
26.10.2019 05:42 14,4 C 13,9 C 13,3 C 89 % 1016,7 hPa 0,0 l/m 0 min 0 min 0 W/m 19,3 km/h (3 Bft) 97,87 %
26.10.2019 05:44 14,4 C 13,9 C 13,3 C 89 % 1016,7 hPa 0,0 l/m 0 min 0 min 0 W/m 19,3 km/h (3 Bft) 97,87 %
26.10.2019 05:46 14,5 C 13,9 C 13,3 C 89 % 1016,7 hPa 0,0 l/m 0 min 0 min 0 W/m 16,1 km/h (3 Bft) 95,74 %
26.10.2019 05:48 14,5 C 13,9 C 13,3 C 89 % 1016,6 hPa 0,0 l/m 0 min 0 min 0 W/m 12,9 km/h (3 Bft) 97,87 %
26.10.2019 05:50 14,5 C 13,9 C 13,3 C 89 % 1016,6 hPa 0,0 l/m 0 min 0 min 0 W/m 16,1 km/h (3 Bft) 97,83 %
26.10.2019 05:52 14,5 C 13,9 C 13,3 C 89 % 1016,6 hPa 0,0 l/m 0 min 0 min 0 W/m 19,3 km/h (3 Bft) 97,87 %
26.10.2019 05:54 14,5 C 13,9 C 13,3 C 89 % 1016,5 hPa 0,0 l/m 0 min 0 min 0 W/m 6,4 km/h (2 Bft) 97,87 %
26.10.2019 05:56 14,5 C 13,9 C 13,3 C 89 % 1016,5 hPa 0,0 l/m 0 min 0 min 0 W/m 12,9 km/h (3 Bft) 95,74 %
26.10.2019 05:58 14,5 C 13,9 C 13,3 C 89 % 1016,5 hPa 0,0 l/m 0 min 0 min 0 W/m 16,1 km/h (3 Bft) 97,87 %
26.10.2019 06:00 14,5 C 13,9 C 13,3 C 88 % 1016,5 hPa 0,0 l/m 0 min 0 min 0 W/m 12,9 km/h (3 Bft) 97,87 %
26.10.2019 06:02 14,5 C 13,9 C 13,3 C 88 % 1016,4 hPa 0,0 l/m 0 min 0 min 0 W/m 19,3 km/h (3 Bft) 97,83 %
26.10.2019 06:04 14,6 C 13,9 C 13,3 C 89 % 1016,5 hPa 0,0 l/m 0 min 0 min 0 W/m 16,1 km/h (3 Bft) 97,87 %
26.10.2019 06:08 14,6 C 13,9 C 13,3 C 89 % 1016,4 hPa 0,0 l/m 0 min 0 min 0 W/m 22,5 km/h (4 Bft) 97,87 %
26.10.2019 06:10 14,6 C 13,9 C 13,3 C 89 % 1016,4 hPa 0,0 l/m 0 min 0 min 0 W/m 19,3 km/h (3 Bft) 97,87 %
26.10.2019 06:12 14,6 C 13,9 C 13,3 C 88 % 1016,5 hPa 0,0 l/m 0 min 0 min 0 W/m 19,3 km/h (3 Bft) 95,74 %
26.10.2019 06:14 14,6 C 13,9 C 13,3 C 88 % 1016,4 hPa 0,0 l/m 0 min 0 min 0 W/m 12,9 km/h (3 Bft) 95,65 %
26.10.2019 06:16 14,6 C 13,9 C 13,3 C 88 % 1016,4 hPa 0,0 l/m 0 min 0 min 0 W/m 16,1 km/h (3 Bft) 97,37 %
26.10.2019 06:18 14,6 C 13,9 C 13,3 C 88 % 1016,4 hPa 0,0 l/m 0 min 0 min 0 W/m 16,1 km/h (3 Bft) 97,87 %
26.10.2019 06:20 14,6 C 13,9 C 13,3 C 88 % 1016,4 hPa 0,0 l/m 0 min 0 min 0 W/m 22,5 km/h (4 Bft) 97,87 %
26.10.2019 06:22 14,6 C 13,9 C 13,3 C 88 % 1016,4 hPa 0,0 l/m 0 min 0 min 0 W/m 16,1 km/h (3 Bft) 100,00 %
26.10.2019 06:24 14,6 C 13,3 C 13,3 C 88 % 1016,4 hPa 0,0 l/m 0 min 0 min 0 W/m 9,7 km/h (2 Bft) 100,00 %
26.10.2019 06:26 14,6 C 13,3 C 13,3 C 88 % 1016,4 hPa 0,0 l/m 0 min 0 min 0 W/m 6,4 km/h (2 Bft) 100,00 %
26.10.2019 06:28 14,6 C 13,9 C 13,3 C 88 % 1016,4 hPa 0,0 l/m 0 min 0 min 0 W/m 19,3 km/h (3 Bft) 100,00 %
26.10.2019 06:30 14,5 C 13,3 C 12,8 C 88 % 1016,4 hPa 0,0 l/m 0 min 0 min 0 W/m 12,9 km/h (3 Bft) 100,00 %
26.10.2019 06:32 14,5 C 13,3 C 12,8 C 88 % 1016,4 hPa 0,0 l/m 0 min 0 min 0 W/m 12,9 km/h (3 Bft) 100,00 %
26.10.2019 06:34 14,5 C 13,3 C 12,8 C 88 % 1016,4 hPa 0,0 l/m 0 min 0 min 0 W/m 12,9 km/h (3 Bft) 100,00 %
26.10.2019 06:36 14,5 C 13,3 C 12,8 C 88 % 1016,4 hPa 0,0 l/m 0 min 0 min 0 W/m 6,4 km/h (2 Bft) 97,87 %
26.10.2019 06:38 14,4 C 13,3 C 12,8 C 88 % 1016,4 hPa 0,0 l/m 0 min 0 min 0 W/m 12,9 km/h (3 Bft) 100,00 %
26.10.2019 06:40 14,4 C 13,3 C 12,8 C 88 % 1016,4 hPa 0,0 l/m 0 min 0 min 0 W/m 12,9 km/h (3 Bft) 100,00 %
26.10.2019 06:42 14,4 C 13,3 C 12,8 C 88 % 1016,4 hPa 0,0 l/m 0 min 0 min 0 W/m 19,3 km/h (3 Bft) 100,00 %
26.10.2019 06:44 14,4 C 13,3 C 12,8 C 88 % 1016,5 hPa 0,0 l/m 0 min 0 min 0 W/m 16,1 km/h (3 Bft) 100,00 %
26.10.2019 06:46 14,3 C 13,3 C 12,8 C 88 % 1016,4 hPa 0,0 l/m 0 min 0 min 0 W/m 12,9 km/h (3 Bft) 100,00 %
26.10.2019 06:48 14,3 C 13,3 C 12,8 C 88 % 1016,4 hPa 0,0 l/m 0 min 0 min 0 W/m 16,1 km/h (3 Bft) 100,00 %
26.10.2019 06:50 14,3 C 13,3 C 12,8 C 88 % 1016,5 hPa 0,0 l/m 0 min 0 min 0 W/m 12,9 km/h (3 Bft) 97,87 %
26.10.2019 06:52 14,3 C 13,3 C 12,8 C 88 % 1016,5 hPa 0,0 l/m 0 min 0 min 0 W/m 16,1 km/h (3 Bft) 97,83 %
26.10.2019 06:54 14,3 C 13,3 C 12,8 C 88 % 1016,5 hPa 0,0 l/m 0 min 0 min 0 W/m 6,4 km/h (2 Bft) 100,00 %
26.10.2019 06:56 14,3 C 13,3 C 12,8 C 88 % 1016,5 hPa 0,0 l/m 0 min 0 min 0 W/m 12,9 km/h (3 Bft) 100,00 %
26.10.2019 06:58 14,3 C 13,3 C 12,8 C 89 % 1016,5 hPa 0,0 l/m 0 min 0 min 0 W/m 12,9 km/h (3 Bft) 100,00 %
26.10.2019 07:00 14,3 C 13,3 C 12,8 C 89 % 1016,5 hPa 0,0 l/m 0 min 0 min 0 W/m 6,4 km/h (2 Bft) 100,00 %
26.10.2019 07:02 14,3 C 13,9 C 12,8 C 89 % 1016,5 hPa 0,0 l/m 0 min 0 min 0 W/m 12,9 km/h (3 Bft) 100,00 %
26.10.2019 07:04 14,3 C 13,9 C 13,3 C 89 % 1016,5 hPa 0,0 l/m 0 min 0 min 0 W/m 6,4 km/h (2 Bft) 97,87 %
26.10.2019 07:06 14,3 C 13,9 C 13,3 C 89 % 1016,4 hPa 0,0 l/m 0 min 0 min 0 W/m 12,9 km/h (3 Bft) 97,87 %
26.10.2019 07:08 14,3 C 13,9 C 13,3 C 89 % 1016,5 hPa 0,0 l/m 0 min 0 min 0 W/m 19,3 km/h (3 Bft) 97,87 %
26.10.2019 07:10 14,3 C 13,3 C 12,8 C 89 % 1016,4 hPa 0,0 l/m 0 min 0 min 0 W/m 12,9 km/h (3 Bft) 97,87 %
26.10.2019 07:12 14,3 C 13,3 C 12,8 C 89 % 1016,4 hPa 0,0 l/m 0 min 0 min 0 W/m 6,4 km/h (2 Bft) 97,87 %
26.10.2019 07:14 14,3 C 13,3 C 12,8 C 89 % 1016,4 hPa 0,0 l/m 0 min 0 min 0 W/m 12,9 km/h (3 Bft) 95,74 %
26.10.2019 07:16 14,3 C 13,3 C 12,8 C 88 % 1016,3 hPa 0,0 l/m 0 min 0 min 0 W/m 6,4 km/h (2 Bft) 97,83 %
26.10.2019 07:18 14,3 C 13,3 C 12,8 C 88 % 1016,3 hPa 0,0 l/m 0 min 0 min 0 W/m 12,9 km/h (3 Bft) 97,87 %
26.10.2019 07:20 14,3 C 13,3 C 12,8 C 88 % 1016,3 hPa 0,0 l/m 0 min 0 min 0 W/m 6,4 km/h (2 Bft) 95,74 %
26.10.2019 07:22 14,3 C 13,3 C 12,8 C 88 % 1016,3 hPa 0,0 l/m 0 min 0 min 0 W/m 12,9 km/h (3 Bft) 97,87 %
26.10.2019 07:24 14,3 C 13,3 C 12,8 C 88 % 1016,3 hPa 0,0 l/m 0 min 0 min 0 W/m 12,9 km/h (3 Bft) 95,74 %
26.10.2019 07:26 14,3 C 13,3 C 12,8 C 88 % 1016,3 hPa 0,0 l/m 0 min 0 min 0 W/m 12,9 km/h (3 Bft) 95,65 %
26.10.2019 07:28 14,3 C 12,8 C 12,8 C 88 % 1016,3 hPa 0,0 l/m 0 min 0 min 0 W/m 6,4 km/h (2 Bft) 95,74 %
26.10.2019 07:30 14,3 C 12,8 C 12,8 C 88 % 1016,3 hPa 0,0 l/m 0 min 0 min 0 W/m 6,4 km/h (2 Bft) 95,74 %
26.10.2019 07:32 14,3 C 13,3 C 12,8 C 88 % 1016,4 hPa 0,0 l/m 0 min 0 min 0 W/m 19,3 km/h (3 Bft) 95,74 %
26.10.2019 07:34 14,3 C 13,3 C 12,8 C 88 % 1016,3 hPa 0,0 l/m 0 min 0 min 0 W/m 6,4 km/h (2 Bft) 95,74 %
26.10.2019 07:36 14,3 C 13,3 C 12,8 C 88 % 1016,3 hPa 0,0 l/m 0 min 0 min 0 W/m 3,2 km/h (1 Bft) 95,74 %
26.10.2019 07:38 14,3 C 13,3 C 12,8 C 88 % 1016,3 hPa 0,0 l/m 0 min 0 min 0 W/m 3,2 km/h (1 Bft) 89,13 %
26.10.2019 07:40 14,3 C 13,3 C 12,8 C 89 % 1016,2 hPa 0,0 l/m 0 min 0 min 0 W/m 6,4 km/h (2 Bft) 93,62 %
26.10.2019 07:42 14,3 C 13,3 C 12,8 C 89 % 1016,3 hPa 0,0 l/m 0 min 0 min 0 W/m 12,9 km/h (3 Bft) 95,74 %
26.10.2019 07:44 14,3 C 13,3 C 12,8 C 89 % 1016,2 hPa 0,0 l/m 0 min 0 min 0 W/m 3,2 km/h (1 Bft) 95,74 %
26.10.2019 07:46 14,3 C 13,3 C 12,8 C 89 % 1016,2 hPa 0,0 l/m 0 min 0 min 0 W/m 6,4 km/h (2 Bft) 95,74 %
26.10.2019 07:48 14,2 C 13,3 C 12,8 C 89 % 1016,3 hPa 0,0 l/m 0 min 0 min 0 W/m 16,1 km/h (3 Bft) 95,74 %
26.10.2019 07:50 14,2 C 13,3 C 12,8 C 89 % 1016,3 hPa 0,0 l/m 0 min 0 min 0 W/m 12,9 km/h (3 Bft) 93,48 %
26.10.2019 07:52 14,3 C 13,3 C 12,8 C 89 % 1016,3 hPa 0,0 l/m 0 min 0 min 0 W/m 19,3 km/h (3 Bft) 95,74 %
26.10.2019 07:54 14,3 C 13,9 C 12,8 C 89 % 1016,3 hPa 0,0 l/m 0 min 0 min 0 W/m 16,1 km/h (3 Bft) 97,87 %
26.10.2019 07:56 14,3 C 13,9 C 13,3 C 89 % 1016,3 hPa 0,0 l/m 0 min 0 min 0 W/m 6,4 km/h (2 Bft) 95,74 %
26.10.2019 07:58 14,3 C 13,9 C 13,3 C 89 % 1016,2 hPa 0,0 l/m 0 min 0 min 0 W/m 12,9 km/h (3 Bft) 97,87 %
26.10.2019 08:00 14,3 C 13,9 C 13,3 C 89 % 1016,1 hPa 0,0 l/m 0 min 0 min 0 W/m 16,1 km/h (3 Bft) 97,87 %
26.10.2019 08:02 14,3 C 13,9 C 13,3 C 89 % 1016,2 hPa 0,0 l/m 0 min 0 min 0 W/m 9,7 km/h (2 Bft) 97,83 %
26.10.2019 08:04 14,3 C 13,9 C 13,3 C 89 % 1016,2 hPa 0,0 l/m 0 min 0 min 0 W/m 16,1 km/h (3 Bft) 93,62 %
26.10.2019 08:06 14,3 C 13,9 C 13,3 C 89 % 1016,2 hPa 0,0 l/m 0 min 0 min 0 W/m 12,9 km/h (3 Bft) 97,87 %
26.10.2019 08:08 14,3 C 13,9 C 13,3 C 89 % 1016,2 hPa 0,0 l/m 0 min 0 min 0 W/m 12,9 km/h (3 Bft) 97,87 %
26.10.2019 08:10 14,3 C 13,9 C 13,3 C 89 % 1016,2 hPa 0,0 l/m 0 min 0 min 0 W/m 12,9 km/h (3 Bft) 97,87 %
26.10.2019 08:12 14,3 C 13,9 C 13,3 C 89 % 1016,2 hPa 0,0 l/m 0 min 0 min 0 W/m 12,9 km/h (3 Bft) 95,65 %
26.10.2019 08:14 14,3 C 13,9 C 13,3 C 89 % 1016,2 hPa 0,0 l/m 0 min 0 min 0 W/m 12,9 km/h (3 Bft) 95,74 %
26.10.2019 08:16 14,3 C 13,9 C 13,3 C 89 % 1016,3 hPa 0,0 l/m 0 min 0 min 0 W/m 3,2 km/h (1 Bft) 97,87 %
26.10.2019 08:18 14,3 C 13,9 C 13,3 C 89 % 1016,3 hPa 0,0 l/m 0 min 0 min 0 W/m 3,2 km/h (1 Bft) 95,74 %
26.10.2019 08:20 14,3 C 13,9 C 13,3 C 89 % 1016,3 hPa 0,0 l/m 0 min 0 min 0 W/m 6,4 km/h (2 Bft) 95,74 %
26.10.2019 08:22 14,3 C 13,9 C 13,3 C 89 % 1016,4 hPa 0,0 l/m 0 min 0 min 0 W/m 6,4 km/h (2 Bft) 95,74 %
26.10.2019 08:24 14,3 C 13,9 C 13,3 C 89 % 1016,4 hPa 0,0 l/m 0 min 0 min 0 W/m 16,1 km/h (3 Bft) 100,00 %
26.10.2019 08:26 14,4 C 13,9 C 13,3 C 89 % 1016,4 hPa 0,0 l/m 0 min 0 min 2 W/m 3,2 km/h (1 Bft) 100,00 %
26.10.2019 08:28 14,4 C 13,9 C 13,3 C 89 % 1016,4 hPa 0,0 l/m 0 min 0 min 5 W/m 6,4 km/h (2 Bft) 100,00 %
26.10.2019 08:30 14,4 C 13,9 C 13,3 C 89 % 1016,4 hPa 0,0 l/m 0 min 0 min 5 W/m 12,9 km/h (3 Bft) 97,87 %
26.10.2019 08:32 14,4 C 13,9 C 13,3 C 89 % 1016,3 hPa 0,0 l/m 0 min 0 min 7 W/m 6,4 km/h (2 Bft) 97,87 %
26.10.2019 08:34 14,4 C 13,9 C 13,3 C 89 % 1016,4 hPa 0,0 l/m 0 min 0 min 8 W/m 12,9 km/h (3 Bft) 97,87 %
26.10.2019 08:36 14,4 C 13,9 C 13,3 C 89 % 1016,3 hPa 0,0 l/m 0 min 0 min 9 W/m 12,9 km/h (3 Bft) 97,83 %
26.10.2019 08:38 14,5 C 13,9 C 13,3 C 89 % 1016,4 hPa 0,0 l/m 0 min 0 min 11 W/m 6,4 km/h (2 Bft) 95,74 %
26.10.2019 08:40 14,5 C 13,9 C 13,3 C 89 % 1016,4 hPa 0,0 l/m 0 min 0 min 11 W/m 6,4 km/h (2 Bft) 97,87 %
26.10.2019 08:42 14,5 C 13,9 C 13,3 C 88 % 1016,4 hPa 0,0 l/m 0 min 0 min 12 W/m 19,3 km/h (3 Bft) 97,87 %
26.10.2019 08:44 14,5 C 13,9 C 13,3 C 88 % 1016,4 hPa 0,0 l/m 0 min 0 min 13 W/m 16,1 km/h (3 Bft) 97,87 %
26.10.2019 08:46 14,6 C 13,9 C 13,3 C 88 % 1016,4 hPa 0,0 l/m 0 min 0 min 14 W/m 6,4 km/h (2 Bft) 97,87 %
26.10.2019 08:48 14,6 C 13,9 C 13,3 C 88 % 1016,4 hPa 0,0 l/m 0 min 0 min 15 W/m 6,4 km/h (2 Bft) 93,48 %
26.10.2019 08:50 14,6 C 13,9 C 13,3 C 88 % 1016,4 hPa 0,0 l/m 0 min 0 min 17 W/m 6,4 km/h (2 Bft) 97,87 %
26.10.2019 08:52 14,6 C 13,9 C 13,3 C 88 % 1016,4 hPa 0,0 l/m 0 min 0 min 21 W/m 19,3 km/h (3 Bft) 95,74 %
26.10.2019 08:54 14,6 C 13,9 C 13,3 C 88 % 1016,3 hPa 0,0 l/m 0 min 0 min 24 W/m 12,9 km/h (3 Bft) 97,87 %
26.10.2019 08:56 14,6 C 13,9 C 13,3 C 88 % 1016,3 hPa 0,0 l/m 0 min 0 min 25 W/m 12,9 km/h (3 Bft) 93,62 %
26.10.2019 08:58 14,6 C 13,9 C 13,3 C 88 % 1016,3 hPa 0,0 l/m 0 min 0 min 22 W/m 12,9 km/h (3 Bft) 97,87 %
26.10.2019 09:00 14,6 C 13,9 C 13,3 C 88 % 1016,4 hPa 0,0 l/m 0 min 0 min 23 W/m 12,9 km/h (3 Bft) 95,65 %
26.10.2019 09:02 14,6 C 13,9 C 13,3 C 88 % 1016,4 hPa 0,0 l/m 0 min 0 min 27 W/m 19,3 km/h (3 Bft) 97,87 %
26.10.2019 09:04 14,6 C 13,9 C 13,3 C 88 % 1016,3 hPa 0,0 l/m 0 min 0 min 24 W/m 6,4 km/h (2 Bft) 97,87 %
26.10.2019 09:06 14,6 C 13,9 C 13,3 C 88 % 1016,3 hPa 0,0 l/m 0 min 0 min 30 W/m 6,4 km/h (2 Bft) 97,87 %
26.10.2019 09:08 14,6 C 13,9 C 13,3 C 88 % 1016,2 hPa 0,0 l/m 0 min 0 min 36 W/m 12,9 km/h (3 Bft) 97,87 %
26.10.2019 09:10 14,6 C 13,9 C 13,3 C 88 % 1016,2 hPa 0,0 l/m 0 min 0 min 38 W/m 6,4 km/h (2 Bft) 95,65 %
26.10.2019 09:12 14,6 C 13,9 C 13,3 C 88 % 1016,2 hPa 0,0 l/m 0 min 0 min 38 W/m 6,4 km/h (2 Bft) 97,87 %
26.10.2019 09:14 14,6 C 13,9 C 13,3 C 88 % 1016,2 hPa 0,0 l/m 0 min 0 min 44 W/m 6,4 km/h (2 Bft) 97,87 %
26.10.2019 09:16 14,6 C 14,4 C 13,3 C 88 % 1016,1 hPa 0,0 l/m 0 min 0 min 45 W/m 3,2 km/h (1 Bft) 95,74 %
26.10.2019 09:18 14,6 C 14,4 C 13,3 C 88 % 1016,2 hPa 0,0 l/m 0 min 0 min 46 W/m 6,4 km/h (2 Bft) 97,87 %
26.10.2019 09:20 14,6 C 13,9 C 13,3 C 88 % 1016,3 hPa 0,0 l/m 0 min 0 min 47 W/m 12,9 km/h (3 Bft) 95,74 %
26.10.2019 09:22 14,6 C 13,9 C 13,3 C 88 % 1016,2 hPa 0,0 l/m 0 min 0 min 49 W/m 12,9 km/h (3 Bft) 100,00 %
26.10.2019 09:24 14,6 C 13,9 C 13,3 C 88 % 1016,2 hPa 0,0 l/m 0 min 0 min 51 W/m 16,1 km/h (3 Bft) 100,00 %
26.10.2019 09:26 14,6 C 13,9 C 13,3 C 88 % 1016,2 hPa 0,0 l/m 0 min 0 min 52 W/m 16,1 km/h (3 Bft) 100,00 %
26.10.2019 09:28 14,6 C 13,9 C 13,3 C 88 % 1016,2 hPa 0,0 l/m 0 min 0 min 54 W/m 12,9 km/h (3 Bft) 100,00 %
26.10.2019 09:30 14,6 C 13,9 C 13,3 C 88 % 1016,2 hPa 0,0 l/m 0 min 0 min 55 W/m 12,9 km/h (3 Bft) 100,00 %
26.10.2019 09:32 14,6 C 13,9 C 13,3 C 88 % 1016,2 hPa 0,0 l/m 0 min 0 min 57 W/m 6,4 km/h (2 Bft) 97,87 %
26.10.2019 09:34 14,6 C 13,9 C 13,3 C 87 % 1016,2 hPa 0,0 l/m 0 min 0 min 59 W/m 12,9 km/h (3 Bft) 100,00 %
26.10.2019 09:36 14,6 C 13,9 C 13,3 C 87 % 1016,2 hPa 0,0 l/m 0 min 0 min 62 W/m 12,9 km/h (3 Bft) 100,00 %
26.10.2019 09:38 14,6 C 13,9 C 13,3 C 87 % 1016,1 hPa 0,0 l/m 0 min 0 min 63 W/m 3,2 km/h (1 Bft) 100,00 %
26.10.2019 09:40 14,6 C 14,4 C 13,3 C 87 % 1016,2 hPa 0,0 l/m 0 min 0 min 64 W/m 16,1 km/h (3 Bft) 95,74 %
26.10.2019 09:42 14,6 C 14,4 C 13,3 C 87 % 1016,2 hPa 0,0 l/m 0 min 0 min 67 W/m 12,9 km/h (3 Bft) 97,87 %
26.10.2019 09:44 14,6 C 14,4 C 13,3 C 87 % 1016,2 hPa 0,0 l/m 0 min 0 min 68 W/m 22,5 km/h (4 Bft) 97,87 %
26.10.2019 09:46 14,6 C 14,4 C 13,3 C 87 % 1016,2 hPa 0,0 l/m 0 min 0 min 70 W/m 12,9 km/h (3 Bft) 95,65 %
26.10.2019 09:48 14,6 C 14,4 C 13,3 C 88 % 1016,2 hPa 0,0 l/m 0 min 0 min 71 W/m 19,3 km/h (3 Bft) 95,74 %
26.10.2019 09:50 14,6 C 14,4 C 13,9 C 87 % 1016,1 hPa 0,0 l/m 0 min 0 min 72 W/m 6,4 km/h (2 Bft) 97,87 %
26.10.2019 09:52 14,6 C 14,4 C 13,9 C 88 % 1016,2 hPa 0,0 l/m 0 min 0 min 75 W/m 19,3 km/h (3 Bft) 97,87 %
26.10.2019 09:54 14,6 C 14,4 C 13,9 C 88 % 1016,2 hPa 0,0 l/m 0 min 0 min 78 W/m 25,7 km/h (4 Bft) 97,87 %
26.10.2019 09:56 14,6 C 15,0 C 13,9 C 88 % 1016,2 hPa 0,0 l/m 0 min 0 min 100 W/m 6,4 km/h (2 Bft) 95,74 %
26.10.2019 09:58 14,6 C 15,6 C 13,9 C 88 % 1016,3 hPa 0,0 l/m 2 min 0 min 121 W/m 6,4 km/h (2 Bft) 97,83 %
26.10.2019 10:00 14,7 C 15,6 C 13,9 C 88 % 1016,3 hPa 0,0 l/m 2 min 0 min 124 W/m 22,5 km/h (4 Bft) 97,87 %
26.10.2019 10:02 14,7 C 15,6 C 13,9 C 88 % 1016,2 hPa 0,0 l/m 2 min 0 min 134 W/m 12,9 km/h (3 Bft) 95,74 %
26.10.2019 10:04 14,7 C 16,1 C 13,9 C 88 % 1016,2 hPa 0,0 l/m 2 min 0 min 142 W/m 12,9 km/h (3 Bft) 97,87 %
26.10.2019 10:06 14,7 C 16,1 C 13,9 C 88 % 1016,2 hPa 0,0 l/m 2 min 0 min 148 W/m 6,4 km/h (2 Bft) 97,87 %
26.10.2019 10:08 14,8 C 16,1 C 13,9 C 88 % 1016,2 hPa 0,0 l/m 2 min 0 min 150 W/m 16,1 km/h (3 Bft) 97,87 %
26.10.2019 10:10 14,8 C 16,1 C 13,9 C 88 % 1016,1 hPa 0,0 l/m 2 min 0 min 163 W/m 19,3 km/h (3 Bft) 97,83 %
26.10.2019 10:12 14,8 C 15,6 C 13,9 C 88 % 1016,2 hPa 0,0 l/m 2 min 0 min 170 W/m 12,9 km/h (3 Bft) 95,74 %
26.10.2019 10:14 14,9 C 15,6 C 13,9 C 87 % 1016,2 hPa 0,0 l/m 2 min 0 min 178 W/m 16,1 km/h (3 Bft) 95,74 %
26.10.2019 10:16 15,0 C 16,1 C 14,4 C 87 % 1016,1 hPa 0,0 l/m 2 min 0 min 183 W/m 12,9 km/h (3 Bft) 97,87 %
26.10.2019 10:18 15,1 C 16,1 C 14,4 C 87 % 1016,0 hPa 0,0 l/m 2 min 0 min 187 W/m 12,9 km/h (3 Bft) 97,87 %
26.10.2019 10:20 15,1 C 16,1 C 14,4 C 87 % 1016,0 hPa 0,0 l/m 2 min 0 min 183 W/m 16,1 km/h (3 Bft) 95,74 %
26.10.2019 10:22 15,2 C 16,1 C 14,4 C 87 % 1016,0 hPa 0,0 l/m 2 min 0 min 182 W/m 12,9 km/h (3 Bft) 93,48 %
26.10.2019 10:24 15,2 C 16,1 C 14,4 C 87 % 1016,1 hPa 0,0 l/m 2 min 0 min 174 W/m 12,9 km/h (3 Bft) 100,00 %
26.10.2019 10:26 15,3 C 16,1 C 14,4 C 87 % 1016,0 hPa 0,0 l/m 2 min 0 min 176 W/m 12,9 km/h (3 Bft) 100,00 %
26.10.2019 10:28 15,3 C 16,1 C 14,4 C 87 % 1016,0 hPa 0,0 l/m 2 min 0 min 196 W/m 16,1 km/h (3 Bft) 97,87 %
26.10.2019 10:30 15,4 C 15,6 C 14,4 C 86 % 1016,1 hPa 0,0 l/m 2 min 0 min 211 W/m 19,3 km/h (3 Bft) 100,00 %
26.10.2019 10:32 15,4 C 16,1 C 14,4 C 86 % 1016,1 hPa 0,0 l/m 2 min 0 min 225 W/m 12,9 km/h (3 Bft) 100,00 %
26.10.2019 10:34 15,4 C 16,7 C 14,4 C 86 % 1016,0 hPa 0,0 l/m 2 min 0 min 232 W/m 16,1 km/h (3 Bft) 100,00 %
26.10.2019 10:36 15,5 C 16,7 C 14,4 C 86 % 1015,9 hPa 0,0 l/m 2 min 0 min 238 W/m 16,1 km/h (3 Bft) 97,87 %
26.10.2019 10:38 15,6 C 17,2 C 14,4 C 86 % 1015,9 hPa 0,0 l/m 2 min 0 min 232 W/m 3,2 km/h (1 Bft) 97,87 %
26.10.2019 10:40 15,6 C 17,8 C 14,4 C 86 % 1015,8 hPa 0,0 l/m 2 min 0 min 228 W/m 16,1 km/h (3 Bft) 97,87 %
26.10.2019 10:42 15,7 C 17,8 C 15,0 C 85 % 1015,8 hPa 0,0 l/m 2 min 0 min 275 W/m 12,9 km/h (3 Bft) 97,87 %
26.10.2019 10:44 15,7 C 17,8 C 15,0 C 85 % 1015,8 hPa 0,0 l/m 2 min 0 min 286 W/m 19,3 km/h (3 Bft) 97,83 %
26.10.2019 10:46 15,7 C 17,2 C 15,0 C 85 % 1015,8 hPa 0,0 l/m 2 min 0 min 290 W/m 6,4 km/h (2 Bft) 97,87 %
26.10.2019 10:48 15,8 C 16,7 C 15,0 C 85 % 1015,8 hPa 0,0 l/m 2 min 0 min 288 W/m 16,1 km/h (3 Bft) 97,87 %
26.10.2019 10:50 15,8 C 16,7 C 15,0 C 85 % 1015,8 hPa 0,0 l/m 2 min 0 min 295 W/m 6,4 km/h (2 Bft) 95,74 %
26.10.2019 10:52 15,9 C 16,7 C 15,0 C 85 % 1015,8 hPa 0,0 l/m 2 min 0 min 306 W/m 16,1 km/h (3 Bft) 97,87 %
26.10.2019 10:54 15,9 C 16,7 C 15,0 C 85 % 1015,8 hPa 0,0 l/m 2 min 0 min 311 W/m 19,3 km/h (3 Bft) 97,87 %
26.10.2019 10:56 15,9 C 16,7 C 15,0 C 85 % 1015,8 hPa 0,0 l/m 2 min 0 min 265 W/m 16,1 km/h (3 Bft) 95,65 %
26.10.2019 10:58 16,0 C 17,2 C 15,0 C 85 % 1015,7 hPa 0,0 l/m 2 min 0 min 220 W/m 19,3 km/h (3 Bft) 97,87 %
26.10.2019 11:00 16,1 C 17,2 C 15,0 C 85 % 1015,7 hPa 0,0 l/m 2 min 0 min 317 W/m 22,5 km/h (4 Bft) 97,87 %
26.10.2019 11:02 16,1 C 17,8 C 15,0 C 85 % 1015,7 hPa 0,0 l/m 2 min 0 min 335 W/m 22,5 km/h (4 Bft) 95,74 %
26.10.2019 11:04 16,1 C 18,3 C 15,0 C 85 % 1015,6 hPa 0,0 l/m 2 min 0 min 342 W/m 22,5 km/h (4 Bft) 97,87 %
26.10.2019 11:06 16,2 C 18,3 C 15,0 C 85 % 1015,7 hPa 0,0 l/m 2 min 0 min 351 W/m 19,3 km/h (3 Bft) 95,74 %
26.10.2019 11:08 16,2 C 18,9 C 15,0 C 85 % 1015,7 hPa 0,0 l/m 2 min 0 min 357 W/m 16,1 km/h (3 Bft) 97,83 %
26.10.2019 11:10 16,3 C 18,3 C 15,0 C 84 % 1015,7 hPa 0,0 l/m 2 min 0 min 361 W/m 19,3 km/h (3 Bft) 97,87 %
26.10.2019 11:12 16,3 C 18,9 C 15,0 C 84 % 1015,7 hPa 0,0 l/m 2 min 0 min 366 W/m 22,5 km/h (4 Bft) 97,87 %
26.10.2019 11:14 16,3 C 19,4 C 15,0 C 84 % 1015,7 hPa 0,0 l/m 2 min 0 min 372 W/m 22,5 km/h (4 Bft) 97,87 %
26.10.2019 11:16 16,4 C 19,4 C 15,0 C 84 % 1015,6 hPa 0,0 l/m 2 min 0 min 375 W/m 25,7 km/h (4 Bft) 97,87 %
26.10.2019 11:18 16,4 C 20,0 C 15,0 C 84 % 1015,6 hPa 0,0 l/m 2 min 0 min 379 W/m 12,9 km/h (3 Bft) 97,83 %
26.10.2019 11:20 16,4 C 21,1 C 15,6 C 84 % 1015,6 hPa 0,0 l/m 2 min 0 min 384 W/m 6,4 km/h (2 Bft) 97,87 %
26.10.2019 11:22 16,6 C 21,1 C 15,6 C 84 % 1015,6 hPa 0,0 l/m 2 min 0 min 373 W/m 16,1 km/h (3 Bft) 97,87 %
26.10.2019 11:24 16,6 C 20,0 C 15,6 C 84 % 1015,6 hPa 0,0 l/m 2 min 0 min 360 W/m 12,9 km/h (3 Bft) 100,00 %
26.10.2019 11:26 16,6 C 19,4 C 15,6 C 84 % 1015,7 hPa 0,0 l/m 2 min 0 min 363 W/m 16,1 km/h (3 Bft) 100,00 %
26.10.2019 11:28 16,7 C 19,4 C 15,6 C 83 % 1015,7 hPa 0,0 l/m 2 min 0 min 365 W/m 6,4 km/h (2 Bft) 97,87 %
26.10.2019 11:30 16,7 C 19,4 C 15,6 C 83 % 1015,7 hPa 0,0 l/m 2 min 0 min 367 W/m 19,3 km/h (3 Bft) 100,00 %
26.10.2019 11:32 16,8 C 18,9 C 15,6 C 83 % 1015,7 hPa 0,0 l/m 2 min 0 min 345 W/m 22,5 km/h (4 Bft) 100,00 %
26.10.2019 11:34 16,8 C 18,3 C 15,6 C 83 % 1015,8 hPa 0,0 l/m 2 min 0 min 364 W/m 16,1 km/h (3 Bft) 100,00 %
26.10.2019 11:36 16,9 C 17,8 C 16,1 C 83 % 1015,8 hPa 0,0 l/m 2 min 0 min 287 W/m 19,3 km/h (3 Bft) 100,00 %
26.10.2019 11:38 16,9 C 17,2 C 16,1 C 83 % 1015,8 hPa 0,0 l/m 2 min 0 min 330 W/m 25,7 km/h (4 Bft) 100,00 %
26.10.2019 11:40 17,0 C 17,2 C 16,1 C 83 % 1015,8 hPa 0,0 l/m 2 min 0 min 250 W/m 16,1 km/h (3 Bft) 100,00 %
26.10.2019 11:42 17,1 C 17,2 C 16,1 C 82 % 1015,8 hPa 0,0 l/m 2 min 0 min 292 W/m 19,3 km/h (3 Bft) 97,83 %
26.10.2019 11:44 17,1 C 17,8 C 16,1 C 82 % 1015,8 hPa 0,0 l/m 0 min 0 min 188 W/m 19,3 km/h (3 Bft) 100,00 %
26.10.2019 11:46 17,1 C 18,3 C 16,1 C 82 % 1015,8 hPa 0,0 l/m 2 min 0 min 198 W/m 12,9 km/h (3 Bft) 100,00 %
26.10.2019 11:48 17,2 C 18,3 C 16,1 C 83 % 1015,8 hPa 0,0 l/m 2 min 0 min 302 W/m 16,1 km/h (3 Bft) 100,00 %
26.10.2019 11:50 17,2 C 18,9 C 16,7 C 83 % 1015,8 hPa 0,0 l/m 2 min 0 min 408 W/m 16,1 km/h (3 Bft) 100,00 %
26.10.2019 11:52 17,3 C 20,0 C 16,7 C 83 % 1015,8 hPa 0,0 l/m 2 min 0 min 419 W/m 25,7 km/h (4 Bft) 100,00 %
26.10.2019 11:54 17,3 C 20,0 C 16,7 C 83 % 1015,7 hPa 0,0 l/m 2 min 0 min 370 W/m 25,7 km/h (4 Bft) 100,00 %
26.10.2019 11:56 17,3 C 20,6 C 16,7 C 83 % 1015,7 hPa 0,0 l/m 2 min 0 min 442 W/m 12,9 km/h (3 Bft) 97,87 %
26.10.2019 11:58 17,4 C 21,7 C 16,7 C 83 % 1015,7 hPa 0,0 l/m 2 min 0 min 448 W/m 6,4 km/h (2 Bft) 95,74 %
26.10.2019 12:00 17,4 C 21,1 C 16,7 C 83 % 1015,7 hPa 0,0 l/m 2 min 0 min 438 W/m 19,3 km/h (3 Bft) 95,74 %
26.10.2019 12:02 17,6 C 20,6 C 16,7 C 82 % 1015,7 hPa 0,0 l/m 2 min 0 min 454 W/m 16,1 km/h (3 Bft) 97,87 %
26.10.2019 12:04 17,6 C 20,0 C 16,7 C 82 % 1015,6 hPa 0,0 l/m 2 min 0 min 447 W/m 25,7 km/h (4 Bft) 95,74 %
26.10.2019 12:08 17,8 C 21,1 C 17,2 C 81 % 1015,6 hPa 0,0 l/m 4 min 0 min 451 W/m 16,1 km/h (3 Bft) 94,62 %
26.10.2019 12:10 17,9 C 22,2 C 17,2 C 81 % 1015,6 hPa 0,0 l/m 2 min 0 min 468 W/m 19,3 km/h (3 Bft) 97,87 %
26.10.2019 12:12 18,1 C 22,2 C 17,2 C 80 % 1015,6 hPa 0,0 l/m 2 min 0 min 473 W/m 25,7 km/h (4 Bft) 95,74 %
26.10.2019 12:14 18,1 C 22,2 C 17,2 C 79 % 1015,6 hPa 0,0 l/m 2 min 0 min 471 W/m 22,5 km/h (4 Bft) 95,74 %
26.10.2019 12:16 18,2 C 22,8 C 17,2 C 79 % 1015,5 hPa 0,0 l/m 2 min 0 min 475 W/m 22,5 km/h (4 Bft) 95,74 %
26.10.2019 12:18 18,3 C 23,3 C 17,2 C 79 % 1015,6 hPa 0,0 l/m 2 min 0 min 475 W/m 22,5 km/h (4 Bft) 97,83 %
26.10.2019 12:20 18,4 C 23,9 C 17,2 C 79 % 1015,5 hPa 0,0 l/m 2 min 0 min 475 W/m 22,5 km/h (4 Bft) 95,74 %
26.10.2019 12:22 18,6 C 23,9 C 17,2 C 79 % 1015,6 hPa 0,0 l/m 2 min 0 min 467 W/m 19,3 km/h (3 Bft) 95,74 %
26.10.2019 12:24 18,7 C 23,3 C 17,2 C 78 % 1015,5 hPa 0,0 l/m 2 min 0 min 482 W/m 25,7 km/h (4 Bft) 95,74 %
26.10.2019 12:26 18,8 C 24,4 C 17,2 C 78 % 1015,5 hPa 0,0 l/m 2 min 0 min 482 W/m 12,9 km/h (3 Bft) 95,74 %
26.10.2019 12:28 18,9 C 23,9 C 17,8 C 78 % 1015,5 hPa 0,0 l/m 2 min 0 min 475 W/m 29,0 km/h (5 Bft) 97,83 %
26.10.2019 12:30 19,0 C 23,9 C 17,8 C 77 % 1015,4 hPa 0,0 l/m 2 min 0 min 482 W/m 29,0 km/h (5 Bft) 95,74 %
26.10.2019 12:32 19,1 C 24,4 C 17,8 C 77 % 1015,5 hPa 0,0 l/m 2 min 0 min 478 W/m 12,9 km/h (3 Bft) 95,74 %
26.10.2019 12:34 19,2 C 24,4 C 17,8 C 76 % 1015,4 hPa 0,0 l/m 2 min 0 min 488 W/m 19,3 km/h (3 Bft) 97,87 %
26.10.2019 12:36 19,4 C 23,9 C 17,8 C 75 % 1015,5 hPa 0,0 l/m 2 min 0 min 489 W/m 29,0 km/h (5 Bft) 97,87 %
26.10.2019 12:38 19,5 C 23,3 C 17,8 C 75 % 1015,6 hPa 0,0 l/m 2 min 0 min 486 W/m 25,7 km/h (4 Bft) 97,87 %
26.10.2019 12:40 19,6 C 23,9 C 17,8 C 74 % 1015,4 hPa 0,0 l/m 2 min 0 min 485 W/m 16,1 km/h (3 Bft) 97,83 %
26.10.2019 12:42 19,7 C 23,3 C 17,8 C 74 % 1015,5 hPa 0,0 l/m 2 min 0 min 488 W/m 25,7 km/h (4 Bft) 93,62 %
26.10.2019 12:44 19,8 C 23,3 C 17,8 C 73 % 1015,4 hPa 0,0 l/m 2 min 0 min 484 W/m 25,7 km/h (4 Bft) 97,87 %
26.10.2019 12:46 19,8 C 23,3 C 17,8 C 73 % 1015,4 hPa 0,0 l/m 2 min 0 min 484 W/m 22,5 km/h (4 Bft) 97,87 %
26.10.2019 12:48 19,8 C 22,8 C 17,8 C 73 % 1015,2 hPa 0,0 l/m 2 min 0 min 483 W/m 29,0 km/h (5 Bft) 97,87 %
26.10.2019 12:50 19,9 C 22,8 C 18,3 C 72 % 1015,3 hPa 0,0 l/m 2 min 0 min 489 W/m 29,0 km/h (5 Bft) 97,87 %
26.10.2019 12:52 19,9 C 23,3 C 18,3 C 72 % 1015,2 hPa 0,0 l/m 2 min 0 min 487 W/m 25,7 km/h (4 Bft) 97,83 %
26.10.2019 12:54 19,9 C 23,3 C 18,3 C 73 % 1015,2 hPa 0,0 l/m 2 min 0 min 465 W/m 25,7 km/h (4 Bft) 97,87 %
26.10.2019 12:56 20,0 C 23,3 C 18,3 C 72 % 1015,2 hPa 0,0 l/m 2 min 0 min 490 W/m 22,5 km/h (4 Bft) 97,87 %
26.10.2019 12:58 20,1 C 23,3 C 18,3 C 72 % 1015,3 hPa 0,0 l/m 2 min 0 min 483 W/m 25,7 km/h (4 Bft) 97,87 %
26.10.2019 13:00 20,1 C 23,3 C 18,3 C 72 % 1015,2 hPa 0,0 l/m 2 min 0 min 441 W/m 19,3 km/h (3 Bft) 95,74 %
26.10.2019 13:02 20,1 C 22,8 C 18,3 C 71 % 1015,2 hPa 0,0 l/m 2 min 0 min 415 W/m 22,5 km/h (4 Bft) 95,74 %
26.10.2019 13:04 20,1 C 22,8 C 18,3 C 72 % 1015,2 hPa 0,0 l/m 2 min 0 min 371 W/m 16,1 km/h (3 Bft) 95,65 %
26.10.2019 13:06 20,2 C 22,8 C 18,3 C 72 % 1015,2 hPa 0,0 l/m 2 min 0 min 405 W/m 19,3 km/h (3 Bft) 97,87 %
26.10.2019 13:08 20,2 C 22,8 C 18,3 C 72 % 1015,2 hPa 0,0 l/m 2 min 0 min 469 W/m 29,0 km/h (5 Bft) 93,62 %
26.10.2019 13:10 20,2 C 22,8 C 18,3 C 71 % 1015,2 hPa 0,0 l/m 2 min 0 min 514 W/m 35,4 km/h (5 Bft) 93,62 %
26.10.2019 13:12 20,2 C 22,8 C 18,9 C 71 % 1015,0 hPa 0,0 l/m 2 min 0 min 541 W/m 35,4 km/h (5 Bft) 95,74 %
26.10.2019 13:14 20,2 C 23,3 C 19,4 C 71 % 1014,9 hPa 0,0 l/m 2 min 0 min 499 W/m 25,7 km/h (4 Bft) 95,74 %
26.10.2019 13:16 20,3 C 23,3 C 20,0 C 71 % 1014,9 hPa 0,0 l/m 2 min 0 min 504 W/m 29,0 km/h (5 Bft) 95,65 %
26.10.2019 13:18 20,3 C 23,9 C 21,7 C 71 % 1014,8 hPa 0,0 l/m 2 min 0 min 519 W/m 19,3 km/h (3 Bft) 93,62 %
26.10.2019 13:20 20,3 C 23,9 C 22,2 C 71 % 1014,8 hPa 0,0 l/m 2 min 0 min 493 W/m 29,0 km/h (5 Bft) 95,74 %
26.10.2019 13:22 20,4 C 23,9 C 22,8 C 71 % 1014,7 hPa 0,0 l/m 2 min 0 min 479 W/m 19,3 km/h (3 Bft) 95,74 %
26.10.2019 13:24 20,4 C 23,3 C 22,2 C 70 % 1014,7 hPa 0,0 l/m 2 min 0 min 464 W/m 32,2 km/h (5 Bft) 95,74 %
26.10.2019 13:26 20,4 C 22,8 C 21,1 C 70 % 1014,8 hPa 0,0 l/m 2 min 0 min 450 W/m 29,0 km/h (5 Bft) 93,62 %
26.10.2019 13:28 20,4 C 22,2 C 20,6 C 70 % 1014,6 hPa 0,0 l/m 2 min 0 min 312 W/m 19,3 km/h (3 Bft) 95,65 %
26.10.2019 13:30 20,4 C 21,1 C 19,4 C 70 % 1014,7 hPa 0,0 l/m 0 min 0 min 181 W/m 22,5 km/h (4 Bft) 95,74 %
26.10.2019 13:32 20,4 C 20,6 C 18,9 C 69 % 1014,6 hPa 0,0 l/m 0 min 0 min 205 W/m 25,7 km/h (4 Bft) 95,74 %
26.10.2019 13:34 20,3 C 20,6 C 18,9 C 69 % 1014,5 hPa 0,0 l/m 0 min 0 min 218 W/m 32,2 km/h (5 Bft) 95,74 %
26.10.2019 13:36 20,3 C 20,6 C 18,9 C 70 % 1014,5 hPa 0,0 l/m 2 min 0 min 224 W/m 22,5 km/h (4 Bft) 95,74 %
26.10.2019 13:38 20,3 C 20,6 C 18,3 C 70 % 1014,5 hPa 0,0 l/m 2 min 0 min 235 W/m 19,3 km/h (3 Bft) 93,62 %
26.10.2019 13:40 20,2 C 21,1 C 18,9 C 70 % 1014,5 hPa 0,0 l/m 2 min 0 min 314 W/m 22,5 km/h (4 Bft) 95,65 %
26.10.2019 13:42 20,2 C 22,2 C 18,9 C 70 % 1014,5 hPa 0,0 l/m 2 min 0 min 344 W/m 19,3 km/h (3 Bft) 95,74 %
26.10.2019 13:44 20,2 C 23,3 C 18,9 C 70 % 1014,4 hPa 0,0 l/m 2 min 0 min 485 W/m 22,5 km/h (4 Bft) 95,74 %
26.10.2019 13:46 20,2 C 23,3 C 18,9 C 70 % 1014,4 hPa 0,0 l/m 2 min 0 min 473 W/m 22,5 km/h (4 Bft) 95,74 %
26.10.2019 13:48 20,2 C 23,3 C 18,9 C 70 % 1014,4 hPa 0,0 l/m 2 min 0 min 481 W/m 22,5 km/h (4 Bft) 95,74 %
26.10.2019 13:50 20,3 C 23,3 C 18,9 C 70 % 1014,4 hPa 0,0 l/m 2 min 0 min 497 W/m 29,0 km/h (5 Bft) 95,65 %
26.10.2019 13:52 20,3 C 24,4 C 18,9 C 70 % 1014,3 hPa 0,0 l/m 2 min 0 min 492 W/m 16,1 km/h (3 Bft) 100,00 %
26.10.2019 13:54 20,3 C 23,9 C 18,9 C 70 % 1014,3 hPa 0,0 l/m 2 min 0 min 405 W/m 25,7 km/h (4 Bft) 100,00 %
26.10.2019 13:56 20,4 C 23,3 C 18,9 C 70 % 1014,3 hPa 0,0 l/m 2 min 0 min 372 W/m 19,3 km/h (3 Bft) 100,00 %
26.10.2019 13:58 20,4 C 23,3 C 18,9 C 69 % 1014,3 hPa 0,0 l/m 2 min 0 min 498 W/m 32,2 km/h (5 Bft) 100,00 %
26.10.2019 14:00 20,5 C 22,8 C 18,9 C 69 % 1014,3 hPa 0,0 l/m 2 min 0 min 508 W/m 29,0 km/h (5 Bft) 100,00 %
26.10.2019 14:02 20,5 C 23,9 C 18,9 C 69 % 1014,2 hPa 0,0 l/m 2 min 0 min 449 W/m 25,7 km/h (4 Bft) 100,00 %
26.10.2019 14:04 20,6 C 23,3 C 18,9 C 69 % 1014,2 hPa 0,0 l/m 2 min 0 min 415 W/m 22,5 km/h (4 Bft) 100,00 %
26.10.2019 14:06 20,6 C 23,3 C 18,9 C 69 % 1014,2 hPa 0,0 l/m 2 min 0 min 408 W/m 22,5 km/h (4 Bft) 100,00 %
26.10.2019 14:08 20,6 C 23,3 C 18,9 C 69 % 1014,2 hPa 0,0 l/m 2 min 0 min 448 W/m 22,5 km/h (4 Bft) 100,00 %
26.10.2019 14:10 20,7 C 23,9 C 19,4 C 69 % 1014,2 hPa 0,0 l/m 2 min 0 min 485 W/m 25,7 km/h (4 Bft) 100,00 %
26.10.2019 14:12 20,7 C 24,4 C 19,4 C 69 % 1014,1 hPa 0,0 l/m 2 min 0 min 514 W/m 19,3 km/h (3 Bft) 97,87 %
26.10.2019 14:14 20,8 C 23,9 C 19,4 C 69 % 1014,2 hPa 0,0 l/m 2 min 0 min 495 W/m 38,6 km/h (5 Bft) 97,83 %
26.10.2019 14:16 20,8 C 24,4 C 19,4 C 68 % 1014,1 hPa 0,0 l/m 2 min 0 min 470 W/m 29,0 km/h (5 Bft) 95,74 %
26.10.2019 14:18 20,9 C 25,0 C 19,4 C 68 % 1014,0 hPa 0,0 l/m 2 min 0 min 475 W/m 22,5 km/h (4 Bft) 97,87 %
26.10.2019 14:20 20,9 C 24,4 C 20,0 C 68 % 1014,0 hPa 0,0 l/m 2 min 0 min 491 W/m 22,5 km/h (4 Bft) 97,87 %
26.10.2019 14:22 21,0 C 23,9 C 19,4 C 67 % 1013,9 hPa 0,0 l/m 2 min 0 min 457 W/m 38,6 km/h (5 Bft) 97,87 %
26.10.2019 14:24 21,1 C 23,9 C 19,4 C 67 % 1013,8 hPa 0,0 l/m 2 min 0 min 464 W/m 32,2 km/h (5 Bft) 97,87 %
26.10.2019 14:26 21,1 C 23,3 C 19,4 C 66 % 1013,9 hPa 0,0 l/m 2 min 0 min 411 W/m 32,2 km/h (5 Bft) 97,83 %
26.10.2019 14:28 21,1 C 23,9 C 19,4 C 66 % 1013,9 hPa 0,0 l/m 2 min 0 min 455 W/m 25,7 km/h (4 Bft) 97,87 %
26.10.2019 14:30 21,1 C 25,0 C 20,0 C 66 % 1013,7 hPa 0,0 l/m 2 min 0 min 504 W/m 22,5 km/h (4 Bft) 97,87 %
26.10.2019 14:32 21,2 C 25,0 C 20,0 C 66 % 1013,7 hPa 0,0 l/m 2 min 0 min 489 W/m 29,0 km/h (5 Bft) 95,74 %
26.10.2019 14:34 21,3 C 24,4 C 20,0 C 66 % 1013,7 hPa 0,0 l/m 2 min 0 min 466 W/m 45,1 km/h (6 Bft) 95,74 %
26.10.2019 14:36 21,3 C 23,9 C 20,0 C 65 % 1013,7 hPa 0,0 l/m 2 min 0 min 385 W/m 22,5 km/h (4 Bft) 95,74 %
26.10.2019 14:38 21,3 C 22,2 C 20,0 C 64 % 1013,6 hPa 0,0 l/m 2 min 0 min 283 W/m 29,0 km/h (5 Bft) 97,83 %
26.10.2019 14:40 21,3 C 22,2 C 19,4 C 64 % 1013,6 hPa 0,0 l/m 2 min 0 min 262 W/m 38,6 km/h (5 Bft) 97,87 %
26.10.2019 14:42 21,3 C 22,2 C 19,4 C 64 % 1013,6 hPa 0,0 l/m 2 min 0 min 309 W/m 25,7 km/h (4 Bft) 97,87 %
26.10.2019 14:44 21,3 C 22,2 C 19,4 C 65 % 1013,5 hPa 0,0 l/m 2 min 0 min 266 W/m 32,2 km/h (5 Bft) 97,87 %
26.10.2019 14:46 21,3 C 22,2 C 19,4 C 65 % 1013,5 hPa 0,0 l/m 2 min 0 min 280 W/m 32,2 km/h (5 Bft) 97,87 %
26.10.2019 14:48 21,2 C 21,7 C 19,4 C 64 % 1013,5 hPa 0,0 l/m 2 min 0 min 245 W/m 29,0 km/h (5 Bft) 97,87 %
26.10.2019 14:50 21,2 C 21,7 C 19,4 C 64 % 1013,5 hPa 0,0 l/m 2 min 0 min 217 W/m 22,5 km/h (4 Bft) 97,83 %
26.10.2019 14:52 21,2 C 21,7 C 19,4 C 65 % 1013,6 hPa 0,0 l/m 2 min 0 min 220 W/m 25,7 km/h (4 Bft) 95,74 %
26.10.2019 14:54 21,1 C 22,2 C 19,4 C 65 % 1013,6 hPa 0,0 l/m 2 min 0 min 291 W/m 19,3 km/h (3 Bft) 100,00 %
26.10.2019 14:56 21,1 C 22,2 C 19,4 C 66 % 1013,5 hPa 0,0 l/m 2 min 0 min 338 W/m 29,0 km/h (5 Bft) 97,87 %
26.10.2019 14:58 21,1 C 22,2 C 19,4 C 66 % 1013,5 hPa 0,0 l/m 2 min 0 min 276 W/m 22,5 km/h (4 Bft) 97,87 %
26.10.2019 15:00 21,1 C 21,7 C 19,4 C 66 % 1013,5 hPa 0,0 l/m 2 min 0 min 213 W/m 19,3 km/h (3 Bft) 100,00 %
26.10.2019 15:02 21,1 C 21,1 C 19,4 C 66 % 1013,4 hPa 0,0 l/m 0 min 0 min 182 W/m 16,1 km/h (3 Bft) 100,00 %
26.10.2019 15:04 21,1 C 21,1 C 19,4 C 67 % 1013,4 hPa 0,0 l/m 0 min 0 min 167 W/m 19,3 km/h (3 Bft) 100,00 %
26.10.2019 15:06 21,1 C 21,1 C 19,4 C 67 % 1013,4 hPa 0,0 l/m 0 min 0 min 158 W/m 16,1 km/h (3 Bft) 97,87 %
26.10.2019 15:08 21,0 C 20,6 C 19,4 C 67 % 1013,4 hPa 0,0 l/m 0 min 0 min 154 W/m 19,3 km/h (3 Bft) 100,00 %
26.10.2019 15:10 20,9 C 20,6 C 18,9 C 67 % 1013,3 hPa 0,0 l/m 0 min 0 min 169 W/m 22,5 km/h (4 Bft) 100,00 %
26.10.2019 15:12 20,9 C 21,1 C 18,9 C 67 % 1013,4 hPa 0,0 l/m 2 min 0 min 185 W/m 19,3 km/h (3 Bft) 100,00 %
26.10.2019 15:14 20,9 C 21,1 C 18,9 C 67 % 1013,4 hPa 0,0 l/m 2 min 0 min 198 W/m 12,9 km/h (3 Bft) 100,00 %
26.10.2019 15:16 20,8 C 21,1 C 18,9 C 67 % 1013,4 hPa 0,0 l/m 0 min 0 min 172 W/m 19,3 km/h (3 Bft) 100,00 %
26.10.2019 15:18 20,8 C 21,1 C 18,9 C 66 % 1013,4 hPa 0,0 l/m 0 min 0 min 169 W/m 25,7 km/h (4 Bft) 97,87 %
26.10.2019 15:20 20,8 C 21,1 C 18,9 C 67 % 1013,3 hPa 0,0 l/m 0 min 0 min 176 W/m 6,4 km/h (2 Bft) 100,00 %
26.10.2019 15:22 20,8 C 20,6 C 18,9 C 66 % 1013,3 hPa 0,0 l/m 2 min 0 min 193 W/m 22,5 km/h (4 Bft) 100,00 %
26.10.2019 15:24 20,7 C 21,1 C 18,9 C 66 % 1013,2 hPa 0,0 l/m 2 min 0 min 229 W/m 22,5 km/h (4 Bft) 100,00 %
26.10.2019 15:26 20,7 C 21,1 C 18,9 C 66 % 1013,2 hPa 0,0 l/m 2 min 0 min 186 W/m 19,3 km/h (3 Bft) 100,00 %
26.10.2019 15:28 20,7 C 20,6 C 18,9 C 66 % 1013,2 hPa 0,0 l/m 0 min 0 min 163 W/m 16,1 km/h (3 Bft) 100,00 %
26.10.2019 15:30 20,6 C 20,6 C 18,9 C 67 % 1013,2 hPa 0,0 l/m 0 min 0 min 160 W/m 16,1 km/h (3 Bft) 97,87 %
26.10.2019 15:32 20,6 C 21,1 C 18,9 C 66 % 1013,2 hPa 0,0 l/m 2 min 0 min 222 W/m 19,3 km/h (3 Bft) 100,00 %
26.10.2019 15:34 20,6 C 21,7 C 19,4 C 67 % 1013,2 hPa 0,0 l/m 2 min 0 min 281 W/m 16,1 km/h (3 Bft) 97,83 %
26.10.2019 15:36 20,6 C 21,7 C 19,4 C 67 % 1013,1 hPa 0,0 l/m 2 min 0 min 233 W/m 16,1 km/h (3 Bft) 100,00 %
26.10.2019 15:38 20,6 C 21,1 C 19,4 C 67 % 1013,1 hPa 0,0 l/m 2 min 0 min 212 W/m 16,1 km/h (3 Bft) 100,00 %
26.10.2019 15:40 20,6 C 21,1 C 19,4 C 67 % 1013,1 hPa 0,0 l/m 2 min 0 min 208 W/m 29,0 km/h (5 Bft) 100,00 %
26.10.2019 15:42 20,6 C 21,1 C 18,9 C 67 % 1013,2 hPa 0,0 l/m 2 min 0 min 169 W/m 19,3 km/h (3 Bft) 97,87 %
26.10.2019 15:44 20,6 C 20,6 C 18,9 C 67 % 1013,1 hPa 0,0 l/m 0 min 0 min 141 W/m 16,1 km/h (3 Bft) 100,00 %
26.10.2019 15:46 20,6 C 20,6 C 18,9 C 67 % 1013,1 hPa 0,0 l/m 0 min 0 min 128 W/m 19,3 km/h (3 Bft) 97,83 %
26.10.2019 15:48 20,6 C 20,0 C 18,9 C 66 % 1013,1 hPa 0,0 l/m 0 min 0 min 130 W/m 19,3 km/h (3 Bft) 100,00 %
26.10.2019 15:50 20,6 C 20,0 C 18,9 C 66 % 1013,1 hPa 0,0 l/m 0 min 0 min 137 W/m 12,9 km/h (3 Bft) 100,00 %
26.10.2019 15:52 20,6 C 20,6 C 18,9 C 66 % 1013,1 hPa 0,0 l/m 2 min 0 min 174 W/m 12,9 km/h (3 Bft) 100,00 %
26.10.2019 15:54 20,5 C 20,6 C 18,9 C 67 % 1013,2 hPa 0,0 l/m 2 min 0 min 177 W/m 19,3 km/h (3 Bft) 97,87 %
26.10.2019 15:56 20,5 C 21,1 C 18,9 C 67 % 1013,0 hPa 0,0 l/m 2 min 0 min 199 W/m 19,3 km/h (3 Bft) 97,87 %
26.10.2019 15:58 20,5 C 21,1 C 18,9 C 67 % 1013,1 hPa 0,0 l/m 2 min 0 min 197 W/m 19,3 km/h (3 Bft) 97,83 %
26.10.2019 16:00 20,5 C 21,1 C 18,9 C 67 % 1013,1 hPa 0,0 l/m 2 min 0 min 203 W/m 16,1 km/h (3 Bft) 97,87 %
26.10.2019 16:02 20,5 C 21,1 C 18,9 C 66 % 1013,0 hPa 0,0 l/m 2 min 0 min 197 W/m 25,7 km/h (4 Bft) 97,87 %
26.10.2019 16:04 20,5 C 21,1 C 18,9 C 67 % 1013,0 hPa 0,0 l/m 2 min 0 min 190 W/m 16,1 km/h (3 Bft) 95,74 %
26.10.2019 16:06 20,5 C 21,1 C 18,9 C 67 % 1013,0 hPa 0,0 l/m 2 min 0 min 195 W/m 12,9 km/h (3 Bft) 95,74 %
26.10.2019 16:08 20,5 C 21,1 C 18,9 C 66 % 1013,0 hPa 0,0 l/m 2 min 0 min 198 W/m 19,3 km/h (3 Bft) 95,74 %
26.10.2019 16:10 20,5 C 21,7 C 18,9 C 66 % 1012,9 hPa 0,0 l/m 2 min 0 min 204 W/m 19,3 km/h (3 Bft) 95,65 %
26.10.2019 16:12 20,5 C 21,7 C 18,9 C 67 % 1012,8 hPa 0,0 l/m 2 min 0 min 217 W/m 12,9 km/h (3 Bft) 95,74 %
26.10.2019 16:14 20,5 C 21,7 C 18,9 C 67 % 1012,8 hPa 0,0 l/m 2 min 0 min 211 W/m 16,1 km/h (3 Bft) 95,74 %
26.10.2019 16:16 20,6 C 22,2 C 18,9 C 67 % 1012,8 hPa 0,0 l/m 2 min 0 min 257 W/m 16,1 km/h (3 Bft) 93,62 %
26.10.2019 16:18 20,6 C 22,2 C 18,9 C 67 % 1012,8 hPa 0,0 l/m 2 min 0 min 254 W/m 12,9 km/h (3 Bft) 95,74 %
26.10.2019 16:20 20,6 C 22,8 C 19,4 C 66 % 1012,8 hPa 0,0 l/m 2 min 0 min 237 W/m 22,5 km/h (4 Bft) 95,74 %
26.10.2019 16:22 20,6 C 22,2 C 19,4 C 67 % 1012,8 hPa 0,0 l/m 2 min 0 min 225 W/m 16,1 km/h (3 Bft) 95,65 %
26.10.2019 16:24 20,6 C 22,2 C 19,4 C 67 % 1012,8 hPa 0,0 l/m 2 min 0 min 231 W/m 16,1 km/h (3 Bft) 91,49 %
26.10.2019 16:26 20,7 C 22,2 C 19,4 C 67 % 1012,8 hPa 0,0 l/m 2 min 0 min 234 W/m 12,9 km/h (3 Bft) 93,62 %
26.10.2019 16:28 20,7 C 22,2 C 19,4 C 66 % 1012,8 hPa 0,0 l/m 2 min 0 min 204 W/m 12,9 km/h (3 Bft) 95,74 %
26.10.2019 16:30 20,7 C 22,8 C 19,4 C 66 % 1012,7 hPa 0,0 l/m 2 min 0 min 196 W/m 12,9 km/h (3 Bft) 95,74 %
26.10.2019 16:32 20,8 C 22,2 C 19,4 C 67 % 1012,7 hPa 0,0 l/m 2 min 0 min 186 W/m 6,4 km/h (2 Bft) 95,74 %
26.10.2019 16:34 20,8 C 22,2 C 18,9 C 67 % 1012,7 hPa 0,0 l/m 2 min 0 min 155 W/m 16,1 km/h (3 Bft) 95,65 %
26.10.2019 16:36 20,8 C 21,7 C 18,9 C 66 % 1012,7 hPa 0,0 l/m 2 min 0 min 151 W/m 16,1 km/h (3 Bft) 95,74 %
26.10.2019 16:38 20,8 C 21,1 C 18,9 C 66 % 1012,6 hPa 0,0 l/m 2 min 0 min 136 W/m 12,9 km/h (3 Bft) 93,62 %
26.10.2019 16:40 20,8 C 20,6 C 18,9 C 65 % 1012,6 hPa 0,0 l/m 0 min 0 min 96 W/m 19,3 km/h (3 Bft) 95,74 %
26.10.2019 16:42 20,8 C 20,6 C 18,9 C 65 % 1012,6 hPa 0,0 l/m 0 min 0 min 93 W/m 12,9 km/h (3 Bft) 93,62 %
26.10.2019 16:44 20,8 C 20,6 C 18,9 C 65 % 1012,5 hPa 0,0 l/m 2 min 0 min 119 W/m 29,0 km/h (5 Bft) 93,48 %
26.10.2019 16:46 20,8 C 20,6 C 18,9 C 65 % 1012,5 hPa 0,0 l/m 2 min 0 min 122 W/m 19,3 km/h (3 Bft) 93,62 %
26.10.2019 16:48 20,8 C 20,6 C 18,9 C 65 % 1012,5 hPa 0,0 l/m 2 min 0 min 104 W/m 12,9 km/h (3 Bft) 95,74 %
26.10.2019 16:50 20,7 C 20,6 C 18,9 C 65 % 1012,5 hPa 0,0 l/m 2 min 0 min 119 W/m 19,3 km/h (3 Bft) 95,74 %
26.10.2019 16:52 20,7 C 20,0 C 18,3 C 65 % 1012,5 hPa 0,0 l/m 0 min 0 min 94 W/m 12,9 km/h (3 Bft) 93,62 %
26.10.2019 16:54 20,7 C 20,0 C 18,3 C 65 % 1012,5 hPa 0,0 l/m 0 min 0 min 84 W/m 19,3 km/h (3 Bft) 95,74 %
26.10.2019 16:56 20,7 C 20,0 C 18,3 C 65 % 1012,5 hPa 0,0 l/m 0 min 0 min 83 W/m 16,1 km/h (3 Bft) 97,83 %
26.10.2019 16:58 20,6 C 19,4 C 18,9 C 65 % 1012,4 hPa 0,0 l/m 0 min 0 min 79 W/m 22,5 km/h (4 Bft) 97,87 %
26.10.2019 17:00 20,6 C 19,4 C 18,9 C 64 % 1012,4 hPa 0,0 l/m 0 min 0 min 76 W/m 25,7 km/h (4 Bft) 97,87 %
26.10.2019 17:02 20,6 C 19,4 C 18,9 C 65 % 1012,5 hPa 0,0 l/m 0 min 0 min 73 W/m 25,7 km/h (4 Bft) 95,74 %
26.10.2019 17:04 20,5 C 19,4 C 18,9 C 65 % 1012,5 hPa 0,0 l/m 0 min 0 min 72 W/m 12,9 km/h (3 Bft) 95,74 %
26.10.2019 17:06 20,4 C 19,4 C 18,3 C 65 % 1012,4 hPa 0,0 l/m 0 min 0 min 69 W/m 22,5 km/h (4 Bft) 97,87 %
26.10.2019 17:08 20,4 C 19,4 C 18,3 C 64 % 1012,5 hPa 0,0 l/m 0 min 0 min 65 W/m 22,5 km/h (4 Bft) 95,65 %
26.10.2019 17:10 20,4 C 19,4 C 18,3 C 65 % 1012,5 hPa 0,0 l/m 0 min 0 min 63 W/m 19,3 km/h (3 Bft) 95,74 %
26.10.2019 17:12 20,3 C 19,4 C 18,3 C 65 % 1012,5 hPa 0,0 l/m 0 min 0 min 66 W/m 22,5 km/h (4 Bft) 97,87 %
26.10.2019 17:14 20,3 C 19,4 C 18,3 C 65 % 1012,5 hPa 0,0 l/m 0 min 0 min 70 W/m 19,3 km/h (3 Bft) 97,87 %
26.10.2019 17:16 20,3 C 19,4 C 18,3 C 65 % 1012,5 hPa 0,0 l/m 0 min 0 min 63 W/m 19,3 km/h (3 Bft) 97,87 %
26.10.2019 17:18 20,2 C 19,4 C 18,3 C 65 % 1012,4 hPa 0,0 l/m 0 min 0 min 60 W/m 19,3 km/h (3 Bft) 97,87 %
26.10.2019 17:20 20,2 C 18,9 C 18,3 C 65 % 1012,3 hPa 0,0 l/m 0 min 0 min 61 W/m 16,1 km/h (3 Bft) 97,83 %
26.10.2019 17:22 20,2 C 18,9 C 18,3 C 65 % 1012,3 hPa 0,0 l/m 0 min 0 min 59 W/m 22,5 km/h (4 Bft) 97,87 %
26.10.2019 17:24 20,1 C 18,9 C 18,3 C 65 % 1012,3 hPa 0,0 l/m 0 min 0 min 58 W/m 29,0 km/h (5 Bft) 97,87 %
26.10.2019 17:26 20,1 C 18,9 C 18,3 C 65 % 1012,3 hPa 0,0 l/m 0 min 0 min 54 W/m 22,5 km/h (4 Bft) 97,87 %
26.10.2019 17:28 20,1 C 18,9 C 18,3 C 66 % 1012,2 hPa 0,0 l/m 0 min 0 min 49 W/m 19,3 km/h (3 Bft) 95,74 %
26.10.2019 17:30 20,1 C 18,9 C 18,3 C 66 % 1012,2 hPa 0,0 l/m 0 min 0 min 47 W/m 12,9 km/h (3 Bft) 100,00 %
26.10.2019 17:32 20,0 C 18,9 C 17,8 C 66 % 1012,2 hPa 0,0 l/m 0 min 0 min 45 W/m 19,3 km/h (3 Bft) 100,00 %
26.10.2019 17:34 19,9 C 18,9 C 17,8 C 66 % 1012,2 hPa 0,0 l/m 0 min 0 min 44 W/m 16,1 km/h (3 Bft) 100,00 %
26.10.2019 17:36 19,9 C 18,9 C 18,3 C 65 % 1012,2 hPa 0,0 l/m 0 min 0 min 40 W/m 22,5 km/h (4 Bft) 97,87 %
26.10.2019 17:38 19,9 C 18,9 C 17,8 C 66 % 1012,2 hPa 0,0 l/m 0 min 0 min 38 W/m 16,1 km/h (3 Bft) 95,74 %
26.10.2019 17:40 19,8 C 18,9 C 17,8 C 66 % 1012,2 hPa 0,0 l/m 0 min 0 min 35 W/m 16,1 km/h (3 Bft) 100,00 %
26.10.2019 17:42 19,8 C 18,3 C 17,8 C 66 % 1012,2 hPa 0,0 l/m 0 min 0 min 32 W/m 16,1 km/h (3 Bft) 100,00 %
26.10.2019 17:44 19,8 C 18,3 C 17,8 C 66 % 1012,2 hPa 0,0 l/m 0 min 0 min 29 W/m 12,9 km/h (3 Bft) 100,00 %
26.10.2019 17:46 19,7 C 18,3 C 17,8 C 66 % 1012,2 hPa 0,0 l/m 0 min 0 min 27 W/m 22,5 km/h (4 Bft) 97,87 %
26.10.2019 17:48 19,7 C 18,3 C 17,8 C 66 % 1012,2 hPa 0,0 l/m 0 min 0 min 25 W/m 16,1 km/h (3 Bft) 100,00 %
26.10.2019 17:50 19,7 C 18,3 C 17,8 C 66 % 1012,3 hPa 0,0 l/m 0 min 0 min 23 W/m 16,1 km/h (3 Bft) 100,00 %
26.10.2019 17:52 19,6 C 18,3 C 17,8 C 66 % 1012,2 hPa 0,0 l/m 0 min 0 min 21 W/m 16,1 km/h (3 Bft) 100,00 %
26.10.2019 17:54 19,6 C 18,3 C 17,8 C 67 % 1012,3 hPa 0,0 l/m 0 min 0 min 19 W/m 16,1 km/h (3 Bft) 100,00 %
26.10.2019 17:56 19,6 C 18,3 C 17,8 C 67 % 1012,2 hPa 0,0 l/m 0 min 0 min 18 W/m 16,1 km/h (3 Bft) 100,00 %
26.10.2019 17:58 19,5 C 18,3 C 17,2 C 67 % 1012,2 hPa 0,0 l/m 0 min 0 min 17 W/m 25,7 km/h (4 Bft) 100,00 %
26.10.2019 18:00 19,5 C 18,3 C 17,2 C 67 % 1012,1 hPa 0,0 l/m 0 min 0 min 15 W/m 12,9 km/h (3 Bft) 100,00 %
26.10.2019 18:02 19,4 C 18,3 C 17,2 C 67 % 1012,1 hPa 0,0 l/m 0 min 0 min 13 W/m 19,3 km/h (3 Bft) 97,87 %
26.10.2019 18:04 19,4 C 17,8 C 17,2 C 67 % 1012,1 hPa 0,0 l/m 0 min 0 min 11 W/m 22,5 km/h (4 Bft) 97,87 %
26.10.2019 18:08 19,3 C 17,8 C 17,2 C 67 % 1012,0 hPa 0,0 l/m 0 min 0 min 8 W/m 19,3 km/h (3 Bft) 100,00 %
26.10.2019 18:10 19,3 C 17,8 C 17,2 C 67 % 1012,0 hPa 0,0 l/m 0 min 0 min 6 W/m 22,5 km/h (4 Bft) 100,00 %
26.10.2019 18:12 19,3 C 17,8 C 17,2 C 68 % 1012,0 hPa 0,0 l/m 0 min 0 min 5 W/m 22,5 km/h (4 Bft) 100,00 %
26.10.2019 18:14 19,2 C 17,8 C 17,2 C 68 % 1011,9 hPa 0,0 l/m 0 min 0 min 2 W/m 19,3 km/h (3 Bft) 95,74 %
26.10.2019 18:16 19,2 C 17,8 C 17,2 C 68 % 1011,9 hPa 0,0 l/m 0 min 0 min 0 W/m 16,1 km/h (3 Bft) 100,00 %
26.10.2019 18:18 19,1 C 17,8 C 17,2 C 68 % 1012,0 hPa 0,0 l/m 0 min 0 min 0 W/m 25,7 km/h (4 Bft) 100,00 %
26.10.2019 18:20 19,1 C 17,8 C 17,2 C 68 % 1011,9 hPa 0,0 l/m 0 min 0 min 0 W/m 19,3 km/h (3 Bft) 100,00 %
26.10.2019 18:22 19,1 C 17,8 C 17,2 C 68 % 1011,9 hPa 0,0 l/m 0 min 0 min 0 W/m 6,4 km/h (2 Bft) 100,00 %
26.10.2019 18:24 19,0 C 17,8 C 17,2 C 68 % 1011,9 hPa 0,0 l/m 0 min 0 min 0 W/m 25,7 km/h (4 Bft) 100,00 %
26.10.2019 18:26 18,9 C 17,2 C 17,2 C 69 % 1012,0 hPa 0,0 l/m 0 min 0 min 0 W/m 16,1 km/h (3 Bft) 95,74 %
26.10.2019 18:28 18,9 C 17,2 C 17,2 C 69 % 1011,9 hPa 0,0 l/m 0 min 0 min 0 W/m 22,5 km/h (4 Bft) 100,00 %
26.10.2019 18:30 18,9 C 17,2 C 16,7 C 69 % 1012,0 hPa 0,0 l/m 0 min 0 min 0 W/m 16,1 km/h (3 Bft) 100,00 %
26.10.2019 18:32 18,8 C 17,2 C 16,7 C 69 % 1012,0 hPa 0,0 l/m 0 min 0 min 0 W/m 19,3 km/h (3 Bft) 100,00 %
26.10.2019 18:34 18,8 C 17,2 C 16,7 C 69 % 1012,0 hPa 0,0 l/m 0 min 0 min 0 W/m 16,1 km/h (3 Bft) 100,00 %
26.10.2019 18:36 18,8 C 17,2 C 16,7 C 69 % 1012,0 hPa 0,0 l/m 0 min 0 min 0 W/m 19,3 km/h (3 Bft) 100,00 %
26.10.2019 18:38 18,7 C 17,2 C 16,7 C 69 % 1012,1 hPa 0,0 l/m 0 min 0 min 0 W/m 12,9 km/h (3 Bft) 97,87 %
26.10.2019 18:40 18,7 C 17,2 C 16,7 C 69 % 1012,0 hPa 0,0 l/m 0 min 0 min 0 W/m 22,5 km/h (4 Bft) 97,87 %
26.10.2019 18:42 18,7 C 17,2 C 16,7 C 69 % 1012,0 hPa 0,0 l/m 0 min 0 min 0 W/m 22,5 km/h (4 Bft) 95,65 %
26.10.2019 18:44 18,6 C 17,2 C 16,7 C 69 % 1011,9 hPa 0,0 l/m 0 min 0 min 0 W/m 16,1 km/h (3 Bft) 100,00 %
26.10.2019 18:46 18,6 C 17,2 C 16,7 C 70 % 1011,9 hPa 0,0 l/m 0 min 0 min 0 W/m 16,1 km/h (3 Bft) 100,00 %
26.10.2019 18:48 18,6 C 17,2 C 16,7 C 70 % 1012,0 hPa 0,0 l/m 0 min 0 min 0 W/m 12,9 km/h (3 Bft) 97,87 %
26.10.2019 18:50 18,6 C 17,2 C 16,7 C 70 % 1011,9 hPa 0,0 l/m 0 min 0 min 0 W/m 22,5 km/h (4 Bft) 97,87 %
26.10.2019 18:52 18,5 C 17,2 C 16,7 C 70 % 1011,9 hPa 0,0 l/m 0 min 0 min 0 W/m 22,5 km/h (4 Bft) 97,87 %
26.10.2019 18:54 18,5 C 17,2 C 16,7 C 70 % 1012,0 hPa 0,0 l/m 0 min 0 min 0 W/m 22,5 km/h (4 Bft) 97,87 %
26.10.2019 18:56 18,4 C 17,2 C 16,7 C 70 % 1012,0 hPa 0,0 l/m 0 min 0 min 0 W/m 22,5 km/h (4 Bft) 97,83 %
26.10.2019 18:58 18,4 C 17,2 C 16,7 C 70 % 1012,0 hPa 0,0 l/m 0 min 0 min 0 W/m 25,7 km/h (4 Bft) 97,87 %
26.10.2019 19:00 18,4 C 17,2 C 16,7 C 70 % 1012,0 hPa 0,0 l/m 0 min 0 min 0 W/m 16,1 km/h (3 Bft) 97,87 %
26.10.2019 19:02 18,4 C 17,2 C 16,7 C 70 % 1012,0 hPa 0,0 l/m 0 min 0 min 0 W/m 19,3 km/h (3 Bft) 93,62 %
26.10.2019 19:04 18,4 C 17,2 C 16,7 C 70 % 1012,1 hPa 0,0 l/m 0 min 0 min 0 W/m 16,1 km/h (3 Bft) 97,87 %
26.10.2019 19:06 18,3 C 17,2 C 16,7 C 70 % 1012,0 hPa 0,0 l/m 0 min 0 min 0 W/m 12,9 km/h (3 Bft) 97,83 %
26.10.2019 19:08 18,3 C 17,2 C 16,7 C 70 % 1012,0 hPa 0,0 l/m 0 min 0 min 0 W/m 22,5 km/h (4 Bft) 97,87 %
26.10.2019 19:10 18,3 C 17,2 C 16,7 C 70 % 1012,0 hPa 0,0 l/m 0 min 0 min 0 W/m 16,1 km/h (3 Bft) 95,74 %
26.10.2019 19:12 18,3 C 17,2 C 16,7 C 70 % 1011,9 hPa 0,0 l/m 0 min 0 min 0 W/m 12,9 km/h (3 Bft) 97,87 %
26.10.2019 19:14 18,3 C 17,2 C 16,7 C 70 % 1011,9 hPa 0,0 l/m 0 min 0 min 0 W/m 16,1 km/h (3 Bft) 97,87 %
26.10.2019 19:16 18,3 C 17,2 C 16,7 C 70 % 1011,9 hPa 0,0 l/m 0 min 0 min 0 W/m 12,9 km/h (3 Bft) 93,62 %
26.10.2019 19:18 18,2 C 17,2 C 16,7 C 71 % 1011,9 hPa 0,0 l/m 0 min 0 min 0 W/m 19,3 km/h (3 Bft) 95,74 %
26.10.2019 19:20 18,2 C 16,7 C 16,7 C 71 % 1012,0 hPa 0,0 l/m 0 min 0 min 0 W/m 6,4 km/h (2 Bft) 95,65 %
26.10.2019 19:22 18,2 C 16,7 C 16,7 C 71 % 1012,0 hPa 0,0 l/m 0 min 0 min 0 W/m 16,1 km/h (3 Bft) 95,74 %
26.10.2019 19:24 18,2 C 16,7 C 16,7 C 71 % 1012,1 hPa 0,0 l/m 0 min 0 min 0 W/m 16,1 km/h (3 Bft) 95,74 %
26.10.2019 19:26 18,2 C 16,7 C 16,7 C 71 % 1012,1 hPa 0,0 l/m 0 min 0 min 0 W/m 6,4 km/h (2 Bft) 91,49 %
26.10.2019 19:28 18,1 C 16,7 C 16,7 C 71 % 1012,1 hPa 0,0 l/m 0 min 0 min 0 W/m 6,4 km/h (2 Bft) 93,62 %
26.10.2019 19:30 18,1 C 16,7 C 16,7 C 71 % 1012,1 hPa 0,0 l/m 0 min 0 min 0 W/m 12,9 km/h (3 Bft) 91,30 %
26.10.2019 19:32 18,1 C 16,7 C 16,7 C 71 % 1012,1 hPa 0,0 l/m 0 min 0 min 0 W/m 19,3 km/h (3 Bft) 93,62 %
26.10.2019 19:34 18,1 C 16,7 C 16,7 C 71 % 1012,2 hPa 0,0 l/m 0 min 0 min 0 W/m 12,9 km/h (3 Bft) 93,62 %
26.10.2019 19:36 18,1 C 16,7 C 16,1 C 71 % 1012,1 hPa 0,0 l/m 0 min 0 min 0 W/m 12,9 km/h (3 Bft) 93,62 %
26.10.2019 19:38 18,0 C 16,7 C 16,1 C 71 % 1012,1 hPa 0,0 l/m 0 min 0 min 0 W/m 6,4 km/h (2 Bft) 93,62 %
26.10.2019 19:40 18,0 C 16,7 C 16,1 C 71 % 1012,1 hPa 0,0 l/m 0 min 0 min 0 W/m 3,2 km/h (1 Bft) 93,62 %
26.10.2019 19:42 18,0 C 16,7 C 16,1 C 71 % 1012,1 hPa 0,0 l/m 0 min 0 min 0 W/m 3,2 km/h (1 Bft) 95,65 %
26.10.2019 19:44 17,9 C 16,7 C 16,1 C 72 % 1012,1 hPa 0,0 l/m 0 min 0 min 0 W/m 6,4 km/h (2 Bft) 93,62 %
26.10.2019 19:46 17,9 C 16,7 C 16,1 C 72 % 1012,1 hPa 0,0 l/m 0 min 0 min 0 W/m 6,4 km/h (2 Bft) 93,62 %
26.10.2019 19:48 17,9 C 16,7 C 16,1 C 72 % 1012,1 hPa 0,0 l/m 0 min 0 min 0 W/m 3,2 km/h (1 Bft) 95,74 %
26.10.2019 19:50 17,8 C 16,7 C 16,1 C 72 % 1012,2 hPa 0,0 l/m 0 min 0 min 0 W/m 6,4 km/h (2 Bft) 95,74 %
26.10.2019 19:52 17,8 C 16,7 C 16,1 C 72 % 1012,2 hPa 0,0 l/m 0 min 0 min 0 W/m 12,9 km/h (3 Bft) 95,65 %
26.10.2019 19:53 17,8 C 16,7 C 16,1 C 72 % 1012,2 hPa 0,0 l/m 0 min 0 min 0 W/m 12,9 km/h (3 Bft) 95,74 %
26.10.2019 19:56 17,7 C 16,7 C 16,1 C 73 % 1012,2 hPa 0,0 l/m 0 min 0 min 0 W/m 25,7 km/h (4 Bft) 93,62 %
26.10.2019 19:58 17,7 C 16,7 C 16,1 C 73 % 1012,2 hPa 0,0 l/m 0 min 0 min 0 W/m 16,1 km/h (3 Bft) 95,74 %
26.10.2019 20:00 17,7 C 16,1 C 15,6 C 73 % 1012,2 hPa 0,0 l/m 0 min 0 min 0 W/m 6,4 km/h (2 Bft) 95,74 %
26.10.2019 20:02 17,7 C 16,1 C 15,6 C 73 % 1012,2 hPa 0,0 l/m 0 min 0 min 0 W/m 16,1 km/h (3 Bft) 93,62 %
26.10.2019 20:04 17,6 C 16,1 C 15,6 C 73 % 1012,3 hPa 0,0 l/m 0 min 0 min 0 W/m 6,4 km/h (2 Bft) 93,48 %
26.10.2019 20:06 17,6 C 16,1 C 15,6 C 73 % 1012,2 hPa 0,0 l/m 0 min 0 min 0 W/m 6,4 km/h (2 Bft) 93,62 %
26.10.2019 20:08 17,6 C 16,1 C 15,6 C 73 % 1012,3 hPa 0,0 l/m 0 min 0 min 0 W/m 6,4 km/h (2 Bft) 95,74 %
26.10.2019 20:10 17,6 C 16,1 C 15,6 C 73 % 1012,2 hPa 0,0 l/m 0 min 0 min 0 W/m 3,2 km/h (1 Bft) 95,74 %
26.10.2019 20:12 17,5 C 16,1 C 15,6 C 73 % 1012,2 hPa 0,0 l/m 0 min 0 min 0 W/m 6,4 km/h (2 Bft) 95,74 %
26.10.2019 20:14 17,5 C 16,1 C 15,6 C 73 % 1012,3 hPa 0,0 l/m 0 min 0 min 0 W/m 6,4 km/h (2 Bft) 95,74 %
26.10.2019 20:16 17,4 C 16,1 C 15,6 C 74 % 1012,2 hPa 0,0 l/m 0 min 0 min 0 W/m 6,4 km/h (2 Bft) 97,83 %
26.10.2019 20:18 17,4 C 16,1 C 15,6 C 74 % 1012,3 hPa 0,0 l/m 0 min 0 min 0 W/m 6,4 km/h (2 Bft) 97,87 %
26.10.2019 20:20 17,4 C 16,1 C 15,6 C 74 % 1012,2 hPa 0,0 l/m 0 min 0 min 0 W/m 6,4 km/h (2 Bft) 97,87 %
26.10.2019 20:22 17,4 C 16,1 C 15,6 C 74 % 1012,2 hPa 0,0 l/m 0 min 0 min 0 W/m 6,4 km/h (2 Bft) 97,87 %
26.10.2019 20:24 17,3 C 16,1 C 15,6 C 74 % 1012,2 hPa 0,0 l/m 0 min 0 min 0 W/m 6,4 km/h (2 Bft) 97,87 %
26.10.2019 20:26 17,3 C 16,1 C 15,6 C 74 % 1012,2 hPa 0,0 l/m 0 min 0 min 0 W/m 16,1 km/h (3 Bft) 97,87 %
26.10.2019 20:28 17,3 C 16,1 C 15,6 C 74 % 1012,3 hPa 0,0 l/m 0 min 0 min 0 W/m 6,4 km/h (2 Bft) 95,65 %
26.10.2019 20:30 17,2 C 16,1 C 15,6 C 74 % 1012,3 hPa 0,0 l/m 0 min 0 min 0 W/m 19,3 km/h (3 Bft) 100,00 %
26.10.2019 20:32 17,2 C 16,1 C 15,6 C 74 % 1012,2 hPa 0,0 l/m 0 min 0 min 0 W/m 9,7 km/h (2 Bft) 100,00 %
26.10.2019 20:34 17,2 C 16,1 C 15,6 C 74 % 1012,3 hPa 0,0 l/m 0 min 0 min 0 W/m 16,1 km/h (3 Bft) 100,00 %
26.10.2019 20:36 17,2 C 16,1 C 15,6 C 74 % 1012,3 hPa 0,0 l/m 0 min 0 min 0 W/m 6,4 km/h (2 Bft) 100,00 %
26.10.2019 20:38 17,1 C 16,1 C 15,6 C 75 % 1012,4 hPa 0,0 l/m 0 min 0 min 0 W/m 16,1 km/h (3 Bft) 100,00 %
26.10.2019 20:40 17,1 C 16,1 C 15,6 C 75 % 1012,4 hPa 0,0 l/m 0 min 0 min 0 W/m 12,9 km/h (3 Bft) 100,00 %
26.10.2019 20:42 17,1 C 15,6 C 15,6 C 75 % 1012,4 hPa 0,0 l/m 0 min 0 min 0 W/m 12,9 km/h (3 Bft) 100,00 %
26.10.2019 20:44 17,1 C 15,6 C 15,6 C 75 % 1012,4 hPa 0,0 l/m 0 min 0 min 0 W/m 6,4 km/h (2 Bft) 100,00 %
26.10.2019 20:46 17,1 C 15,6 C 15,6 C 75 % 1012,4 hPa 0,0 l/m 0 min 0 min 0 W/m 6,4 km/h (2 Bft) 100,00 %
26.10.2019 20:48 17,1 C 15,6 C 15,6 C 75 % 1012,4 hPa 0,0 l/m 0 min 0 min 0 W/m 19,3 km/h (3 Bft) 97,87 %
26.10.2019 20:50 17,0 C 15,6 C 15,6 C 75 % 1012,4 hPa 0,0 l/m 0 min 0 min 0 W/m 3,2 km/h (1 Bft) 100,00 %
26.10.2019 20:52 17,0 C 15,6 C 15,6 C 75 % 1012,4 hPa 0,0 l/m 0 min 0 min 0 W/m 6,4 km/h (2 Bft) 100,00 %
26.10.2019 20:54 16,9 C 15,6 C 15,0 C 76 % 1012,4 hPa 0,0 l/m 0 min 0 min 0 W/m 6,4 km/h (2 Bft) 100,00 %
26.10.2019 20:56 16,9 C 15,6 C 15,0 C 76 % 1012,4 hPa 0,0 l/m 0 min 0 min 0 W/m 12,9 km/h (3 Bft) 100,00 %
26.10.2019 20:58 16,9 C 15,6 C 15,0 C 76 % 1012,3 hPa 0,0 l/m 0 min 0 min 0 W/m 12,9 km/h (3 Bft) 100,00 %
26.10.2019 21:00 16,9 C 15,6 C 15,0 C 76 % 1012,4 hPa 0,0 l/m 0 min 0 min 0 W/m 12,9 km/h (3 Bft) 100,00 %
26.10.2019 21:02 16,9 C 15,6 C 15,0 C 76 % 1012,4 hPa 0,0 l/m 0 min 0 min 0 W/m 6,4 km/h (2 Bft) 97,87 %
26.10.2019 21:04 16,8 C 15,6 C 15,0 C 76 % 1012,4 hPa 0,0 l/m 0 min 0 min 0 W/m 6,4 km/h (2 Bft) 100,00 %
26.10.2019 21:06 16,8 C 15,6 C 15,0 C 76 % 1012,4 hPa 0,0 l/m 0 min 0 min 0 W/m 6,4 km/h (2 Bft) 95,74 %
26.10.2019 21:08 16,8 C 15,6 C 15,0 C 76 % 1012,4 hPa 0,0 l/m 0 min 0 min 0 W/m 3,2 km/h (1 Bft) 100,00 %
26.10.2019 21:10 16,8 C 15,6 C 15,0 C 76 % 1012,4 hPa 0,0 l/m 0 min 0 min 0 W/m 12,9 km/h (3 Bft) 100,00 %
26.10.2019 21:12 16,7 C 15,6 C 15,0 C 76 % 1012,5 hPa 0,0 l/m 0 min 0 min 0 W/m 3,2 km/h (1 Bft) 97,87 %
26.10.2019 21:14 16,7 C 15,6 C 15,0 C 76 % 1012,5 hPa 0,0 l/m 0 min 0 min 0 W/m 6,4 km/h (2 Bft) 100,00 %
26.10.2019 21:16 16,7 C 15,6 C 15,0 C 76 % 1012,4 hPa 0,0 l/m 0 min 0 min 0 W/m 12,9 km/h (3 Bft) 100,00 %
26.10.2019 21:18 16,7 C 15,6 C 15,0 C 76 % 1012,4 hPa 0,0 l/m 0 min 0 min 0 W/m 6,4 km/h (2 Bft) 100,00 %
26.10.2019 21:20 16,7 C 15,6 C 15,0 C 76 % 1012,5 hPa 0,0 l/m 0 min 0 min 0 W/m 12,9 km/h (3 Bft) 100,00 %
26.10.2019 21:22 16,6 C 15,6 C 15,0 C 76 % 1012,5 hPa 0,0 l/m 0 min 0 min 0 W/m 12,9 km/h (3 Bft) 100,00 %
26.10.2019 21:24 16,6 C 15,6 C 15,0 C 76 % 1012,4 hPa 0,0 l/m 0 min 0 min 0 W/m 12,9 km/h (3 Bft) 100,00 %
26.10.2019 21:26 16,6 C 15,6 C 15,0 C 76 % 1012,4 hPa 0,0 l/m 0 min 0 min 0 W/m 9,7 km/h (2 Bft) 97,83 %
26.10.2019 21:28 16,6 C 15,6 C 15,0 C 76 % 1012,5 hPa 0,0 l/m 0 min 0 min 0 W/m 6,4 km/h (2 Bft) 100,00 %
26.10.2019 21:30 16,6 C 15,6 C 15,0 C 76 % 1012,5 hPa 0,0 l/m 0 min 0 min 0 W/m 6,4 km/h (2 Bft) 97,87 %
26.10.2019 21:32 16,6 C 15,6 C 15,0 C 76 % 1012,5 hPa 0,0 l/m 0 min 0 min 0 W/m 6,4 km/h (2 Bft) 100,00 %
26.10.2019 21:34 16,5 C 15,6 C 15,0 C 76 % 1012,5 hPa 0,0 l/m 0 min 0 min 0 W/m 6,4 km/h (2 Bft) 95,74 %
26.10.2019 21:36 16,5 C 15,6 C 15,0 C 76 % 1012,5 hPa 0,0 l/m 0 min 0 min 0 W/m 16,1 km/h (3 Bft) 97,87 %
26.10.2019 21:38 16,5 C 15,6 C 15,0 C 76 % 1012,6 hPa 0,0 l/m 0 min 0 min 0 W/m 6,4 km/h (2 Bft) 97,83 %
26.10.2019 21:40 16,4 C 15,6 C 15,0 C 76 % 1012,5 hPa 0,0 l/m 0 min 0 min 0 W/m 6,4 km/h (2 Bft) 100,00 %
26.10.2019 21:42 16,4 C 15,6 C 15,0 C 76 % 1012,5 hPa 0,0 l/m 0 min 0 min 0 W/m 3,2 km/h (1 Bft) 100,00 %
26.10.2019 21:44 16,4 C 15,6 C 15,0 C 76 % 1012,5 hPa 0,0 l/m 0 min 0 min 0 W/m 12,9 km/h (3 Bft) 97,87 %
26.10.2019 21:46 16,4 C 15,6 C 15,0 C 76 % 1012,5 hPa 0,0 l/m 0 min 0 min 0 W/m 6,4 km/h (2 Bft) 97,87 %
26.10.2019 21:48 16,4 C 15,6 C 15,0 C 76 % 1012,5 hPa 0,0 l/m 0 min 0 min 0 W/m 3,2 km/h (1 Bft) 97,87 %
26.10.2019 21:50 16,4 C 15,6 C 15,0 C 76 % 1012,5 hPa 0,0 l/m 0 min 0 min 0 W/m 12,9 km/h (3 Bft) 97,83 %
26.10.2019 21:52 16,4 C 15,6 C 15,0 C 76 % 1012,5 hPa 0,0 l/m 0 min 0 min 0 W/m 12,9 km/h (3 Bft) 97,87 %
26.10.2019 21:54 16,4 C 15,6 C 15,0 C 75 % 1012,5 hPa 0,0 l/m 0 min 0 min 0 W/m 3,2 km/h (1 Bft) 95,74 %
26.10.2019 21:56 16,4 C 16,1 C 15,0 C 75 % 1012,5 hPa 0,0 l/m 0 min 0 min 0 W/m 12,9 km/h (3 Bft) 93,62 %
26.10.2019 21:58 16,4 C 16,1 C 15,6 C 75 % 1012,5 hPa 0,0 l/m 0 min 0 min 0 W/m 12,9 km/h (3 Bft) 97,87 %
26.10.2019 22:00 16,4 C 16,1 C 15,6 C 74 % 1012,5 hPa 0,0 l/m 0 min 0 min 0 W/m 12,9 km/h (3 Bft) 97,87 %
26.10.2019 22:02 16,4 C 16,1 C 15,6 C 74 % 1012,5 hPa 0,0 l/m 0 min 0 min 0 W/m 12,9 km/h (3 Bft) 97,83 %
26.10.2019 22:04 16,4 C 16,1 C 15,6 C 74 % 1012,5 hPa 0,0 l/m 0 min 0 min 0 W/m 25,7 km/h (4 Bft) 97,87 %
26.10.2019 22:06 16,5 C 16,1 C 15,6 C 74 % 1012,5 hPa 0,0 l/m 0 min 0 min 0 W/m 16,1 km/h (3 Bft) 97,87 %
26.10.2019 22:08 16,6 C 16,1 C 15,6 C 73 % 1012,5 hPa 0,0 l/m 0 min 0 min 0 W/m 3,2 km/h (1 Bft) 97,87 %
26.10.2019 22:10 16,6 C 16,1 C 15,6 C 73 % 1012,6 hPa 0,0 l/m 0 min 0 min 0 W/m 12,9 km/h (3 Bft) 97,87 %
26.10.2019 22:12 16,6 C 16,1 C 15,6 C 73 % 1012,5 hPa 0,0 l/m 0 min 0 min 0 W/m 6,4 km/h (2 Bft) 95,65 %
26.10.2019 22:14 16,7 C 16,7 C 16,1 C 73 % 1012,5 hPa 0,0 l/m 0 min 0 min 0 W/m 16,1 km/h (3 Bft) 97,87 %
26.10.2019 22:16 16,7 C 16,7 C 16,1 C 73 % 1012,6 hPa 0,0 l/m 0 min 0 min 0 W/m 16,1 km/h (3 Bft) 97,87 %
26.10.2019 22:18 16,8 C 16,7 C 16,1 C 73 % 1012,6 hPa 0,0 l/m 0 min 0 min 0 W/m 19,3 km/h (3 Bft) 95,74 %
26.10.2019 22:20 16,8 C 16,7 C 16,1 C 73 % 1012,5 hPa 0,0 l/m 0 min 0 min 0 W/m 16,1 km/h (3 Bft) 95,74 %
26.10.2019 22:22 16,8 C 16,7 C 16,1 C 72 % 1012,6 hPa 0,0 l/m 0 min 0 min 0 W/m 16,1 km/h (3 Bft) 93,62 %
26.10.2019 22:24 16,9 C 16,7 C 16,1 C 72 % 1012,5 hPa 0,0 l/m 0 min 0 min 0 W/m 6,4 km/h (2 Bft) 95,65 %
26.10.2019 22:26 16,9 C 16,7 C 16,1 C 72 % 1012,5 hPa 0,0 l/m 0 min 0 min 0 W/m 19,3 km/h (3 Bft) 93,62 %
26.10.2019 22:28 17,0 C 16,7 C 16,1 C 72 % 1012,5 hPa 0,0 l/m 0 min 0 min 0 W/m 12,9 km/h (3 Bft) 93,62 %
26.10.2019 22:30 17,0 C 16,7 C 16,1 C 72 % 1012,6 hPa 0,0 l/m 0 min 0 min 0 W/m 9,7 km/h (2 Bft) 97,87 %
26.10.2019 22:32 17,1 C 16,7 C 16,1 C 72 % 1012,5 hPa 0,0 l/m 0 min 0 min 0 W/m 16,1 km/h (3 Bft) 97,87 %
26.10.2019 22:34 17,1 C 16,7 C 16,1 C 72 % 1012,6 hPa 0,0 l/m 0 min 0 min 0 W/m 29,0 km/h (5 Bft) 97,87 %
26.10.2019 22:36 17,1 C 16,7 C 16,1 C 72 % 1012,5 hPa 0,0 l/m 0 min 0 min 0 W/m 19,3 km/h (3 Bft) 95,65 %
26.10.2019 22:38 17,2 C 16,7 C 16,1 C 71 % 1012,5 hPa 0,0 l/m 0 min 0 min 0 W/m 16,1 km/h (3 Bft) 97,87 %
26.10.2019 22:40 17,2 C 16,7 C 16,1 C 71 % 1012,6 hPa 0,0 l/m 0 min 0 min 0 W/m 19,3 km/h (3 Bft) 95,74 %
26.10.2019 22:42 17,3 C 16,7 C 16,1 C 71 % 1012,6 hPa 0,0 l/m 0 min 0 min 0 W/m 25,7 km/h (4 Bft) 97,87 %
26.10.2019 22:44 17,3 C 16,7 C 16,1 C 71 % 1012,6 hPa 0,0 l/m 0 min 0 min 0 W/m 19,3 km/h (3 Bft) 97,87 %
26.10.2019 22:46 17,4 C 16,7 C 16,1 C 71 % 1012,6 hPa 0,0 l/m 0 min 0 min 0 W/m 19,3 km/h (3 Bft) 95,74 %
26.10.2019 22:48 17,4 C 16,7 C 16,1 C 71 % 1012,5 hPa 0,0 l/m 0 min 0 min 0 W/m 16,1 km/h (3 Bft) 97,83 %
26.10.2019 22:50 17,4 C 16,7 C 16,1 C 71 % 1012,5 hPa 0,0 l/m 0 min 0 min 0 W/m 22,5 km/h (4 Bft) 95,74 %
26.10.2019 22:52 17,5 C 16,7 C 16,1 C 71 % 1012,5 hPa 0,0 l/m 0 min 0 min 0 W/m 29,0 km/h (5 Bft) 95,74 %
26.10.2019 22:54 17,5 C 16,7 C 16,1 C 71 % 1012,6 hPa 0,0 l/m 0 min 0 min 0 W/m 22,5 km/h (4 Bft) 95,74 %
26.10.2019 22:56 17,6 C 16,7 C 16,1 C 71 % 1012,6 hPa 0,0 l/m 0 min 0 min 0 W/m 22,5 km/h (4 Bft) 93,62 %
26.10.2019 22:58 17,6 C 17,2 C 16,7 C 71 % 1012,5 hPa 0,0 l/m 0 min 0 min 0 W/m 25,7 km/h (4 Bft) 95,65 %
26.10.2019 23:00 17,6 C 17,2 C 16,7 C 70 % 1012,6 hPa 0,0 l/m 0 min 0 min 0 W/m 22,5 km/h (4 Bft) 95,74 %
26.10.2019 23:02 17,7 C 16,7 C 16,1 C 70 % 1012,5 hPa 0,0 l/m 0 min 0 min 0 W/m 29,0 km/h (5 Bft) 97,87 %
26.10.2019 23:04 17,7 C 16,7 C 16,1 C 70 % 1012,7 hPa 0,0 l/m 0 min 0 min 0 W/m 22,5 km/h (4 Bft) 97,87 %
26.10.2019 23:06 17,7 C 16,7 C 16,1 C 70 % 1012,7 hPa 0,0 l/m 0 min 0 min 0 W/m 16,1 km/h (3 Bft) 95,74 %
26.10.2019 23:08 17,7 C 16,7 C 16,1 C 70 % 1012,6 hPa 0,0 l/m 0 min 0 min 0 W/m 19,3 km/h (3 Bft) 97,87 %
26.10.2019 23:10 17,8 C 16,7 C 16,1 C 70 % 1012,6 hPa 0,0 l/m 0 min 0 min 0 W/m 29,0 km/h (5 Bft) 97,83 %
26.10.2019 23:12 17,7 C 17,2 C 16,7 C 70 % 1012,7 hPa 0,0 l/m 0 min 0 min 0 W/m 22,5 km/h (4 Bft) 97,87 %
26.10.2019 23:14 17,8 C 17,2 C 16,7 C 70 % 1012,7 hPa 0,0 l/m 0 min 0 min 0 W/m 22,5 km/h (4 Bft) 97,87 %
26.10.2019 23:16 17,8 C 17,2 C 16,7 C 70 % 1012,6 hPa 0,0 l/m 0 min 0 min 0 W/m 16,1 km/h (3 Bft) 97,87 %
26.10.2019 23:18 17,8 C 17,2 C 16,7 C 70 % 1012,7 hPa 0,0 l/m 0 min 0 min 0 W/m 16,1 km/h (3 Bft) 97,87 %
26.10.2019 23:20 17,8 C 17,2 C 16,7 C 70 % 1012,7 hPa 0,0 l/m 0 min 0 min 0 W/m 19,3 km/h (3 Bft) 97,87 %
26.10.2019 23:22 17,8 C 17,2 C 16,7 C 70 % 1012,8 hPa 0,0 l/m 0 min 0 min 0 W/m 35,4 km/h (5 Bft) 95,65 %
26.10.2019 23:24 17,9 C 17,2 C 16,7 C 70 % 1012,8 hPa 0,0 l/m 0 min 0 min 0 W/m 29,0 km/h (5 Bft) 97,87 %
26.10.2019 23:26 17,9 C 17,2 C 16,7 C 70 % 1012,7 hPa 0,0 l/m 0 min 0 min 0 W/m 29,0 km/h (5 Bft) 95,74 %
26.10.2019 23:28 17,9 C 17,2 C 16,7 C 70 % 1012,7 hPa 0,0 l/m 0 min 0 min 0 W/m 22,5 km/h (4 Bft) 97,87 %
26.10.2019 23:30 18,0 C 17,2 C 16,7 C 70 % 1012,7 hPa 0,0 l/m 0 min 0 min 0 W/m 22,5 km/h (4 Bft) 97,87 %
26.10.2019 23:32 18,0 C 17,2 C 16,7 C 70 % 1012,8 hPa 0,0 l/m 0 min 0 min 0 W/m 35,4 km/h (5 Bft) 97,87 %
26.10.2019 23:34 18,1 C 17,2 C 16,7 C 70 % 1012,7 hPa 0,0 l/m 0 min 0 min 0 W/m 19,3 km/h (3 Bft) 95,65 %
26.10.2019 23:36 18,1 C 17,2 C 16,7 C 70 % 1012,7 hPa 0,0 l/m 0 min 0 min 0 W/m 25,7 km/h (4 Bft) 97,87 %
26.10.2019 23:38 18,1 C 17,2 C 16,7 C 70 % 1012,6 hPa 0,0 l/m 0 min 0 min 0 W/m 25,7 km/h (4 Bft) 93,62 %
26.10.2019 23:40 18,1 C 17,2 C 16,7 C 70 % 1012,6 hPa 0,0 l/m 0 min 0 min 0 W/m 19,3 km/h (3 Bft) 97,87 %
26.10.2019 23:42 18,1 C 17,2 C 16,7 C 70 % 1012,6 hPa 0,0 l/m 0 min 0 min 0 W/m 16,1 km/h (3 Bft) 97,87 %
26.10.2019 23:44 18,1 C 17,2 C 16,7 C 70 % 1012,6 hPa 0,0 l/m 0 min 0 min 0 W/m 16,1 km/h (3 Bft) 97,87 %
26.10.2019 23:46 18,1 C 17,2 C 16,7 C 70 % 1012,6 hPa 0,0 l/m 0 min 0 min 0 W/m 25,7 km/h (4 Bft) 97,83 %
26.10.2019 23:48 18,1 C 17,2 C 16,7 C 70 % 1012,5 hPa 0,0 l/m 0 min 0 min 0 W/m 16,1 km/h (3 Bft) 100,00 %
26.10.2019 23:50 18,1 C 17,2 C 16,7 C 70 % 1012,5 hPa 0,0 l/m 0 min 0 min 0 W/m 29,0 km/h (5 Bft) 100,00 %
26.10.2019 23:52 18,1 C 17,2 C 16,7 C 70 % 1012,5 hPa 0,0 l/m 0 min 0 min 0 W/m 38,6 km/h (5 Bft) 100,00 %
26.10.2019 23:54 18,1 C 17,2 C 16,7 C 70 % 1012,5 hPa 0,0 l/m 0 min 0 min 0 W/m 32,2 km/h (5 Bft) 100,00 %
26.10.2019 23:56 18,1 C 17,2 C 16,7 C 70 % 1012,6 hPa 0,0 l/m 0 min 0 min 0 W/m 25,7 km/h (4 Bft) 97,83 %
26.10.2019 23:58 18,1 C 17,2 C 16,7 C 70 % 1012,5 hPa 0,0 l/m 0 min 0 min 0 W/m 19,3 km/h (3 Bft) 100,00 %
_ Min-Zeit 00:40 00:00 00:00 14:38 18:14 - - - - 01:30 07:38
Minimum _ 13,6 C 12,8 C 12,2 C 64 % 1011,9 hPa - - - - 3,2 km/h (1 Bft) 89,13 %
_ Max-Zeit 14:34 14:18 13:22 02:04 00:54 00:00 12:08 00:00 13:12 14:34 01:24
Maximum _ 21,3 C 25,0 C 22,8 C 90 % 1018,2 hPa 0,0 l/m 4 min 0 min 541 W/m 45,1 km/h
O (6 Bft)
100,00 %
Durchschnitt _ 16,7 C 16,6 C 15,3 C 79 % 1014,9 hPa #0,0 l/m #6:14 h #0 min. 234 W/m 15,6 km/h (3 Bft) 97,47 %
© 2019 W. Hausmann